Observation data for Throckmorton on 09/30/2020      Previous  Date  Next       Current Mesonet Observations  Soil Data  Daily Summary Page  Observations in Plain Language
KTH1 300500Z 22006KT 17/01 A3007 RMK A01 T01710012  RH  034%=      5-min Rain = 0
KTH1 300501Z 22006KT 17/02 A3007 RMK A01 T01720016  RH  035%=      5-min Rain = 0
KTH1 300502Z 22007KT 17/02 A3007 RMK A01 T01730015  RH  035%=      5-min Rain = 0
KTH1 300503Z 22007KT 17/02 A3007 RMK A01 T01730015  RH  035%=      5-min Rain = 0
KTH1 300504Z 22007KT 17/01 A3007 RMK A01 T01730012  RH  034%=      5-min Rain = 0
KTH1 300505Z 21007KT 17/01 A3008 RMK A01 T01730013  RH  034%=      5-min Rain = 0
KTH1 300506Z 22007KT 17/01 A3008 RMK A01 T01730014  RH  034%=      5-min Rain = 0
KTH1 300507Z 22006KT 17/01 A3007 RMK A01 T01720014  RH  034%=      5-min Rain = 0
KTH1 300508Z 22006KT 17/01 A3007 RMK A01 T01720014  RH  035%=      5-min Rain = 0
KTH1 300509Z 22005KT 17/01 A3007 RMK A01 T01710013  RH  034%=      5-min Rain = 0
KTH1 300510Z 22006KT 17/02 A3007 RMK A01 T01710015  RH  035%=      5-min Rain = 0
KTH1 300511Z 21006KT 17/01 A3007 RMK A01 T01710014  RH  035%=      5-min Rain = 0
KTH1 300512Z 22006KT 17/01 A3007 RMK A01 T01710012  RH  034%=      5-min Rain = 0
KTH1 300513Z 22006KT 17/01 A3007 RMK A01 T01710014  RH  035%=      5-min Rain = 0
KTH1 300514Z 22006KT 17/02 A3007 RMK A01 T01710015  RH  035%=      5-min Rain = 0
KTH1 300515Z 22007KT 17/02 A3007 RMK A01 T01700017  RH  036%=      5-min Rain = 0
KTH1 300516Z 22007KT 17/01 A3007 RMK A01 T01690014  RH  035%=      5-min Rain = 0
KTH1 300517Z 22007KT 17/01 A3007 RMK A01 T01690013  RH  035%=      5-min Rain = 0
KTH1 300518Z 22006KT 17/01 A3007 RMK A01 T01700014  RH  035%=      5-min Rain = 0
KTH1 300519Z 22006KT 17/02 A3007 RMK A01 T01690015  RH  035%=      5-min Rain = 0
KTH1 300520Z 22007KT 17/01 A3007 RMK A01 T01690014  RH  035%=      5-min Rain = 0
KTH1 300521Z 22006KT 17/02 A3007 RMK A01 T01690016  RH  036%=      5-min Rain = 0
KTH1 300522Z 22007KT 17/01 A3007 RMK A01 T01680012  RH  035%=      5-min Rain = 0
KTH1 300523Z 21007KT 17/01 A3007 RMK A01 T01680012  RH  035%=      5-min Rain = 0
KTH1 300524Z 22008KT 17/01 A3007 RMK A01 T01670011  RH  035%=      5-min Rain = 0
KTH1 300525Z 22007KT 17/01 A3007 RMK A01 T01660011  RH  035%=      5-min Rain = 0
KTH1 300526Z 22007KT 17/01 A3007 RMK A01 T01660012  RH  035%=      5-min Rain = 0
KTH1 300527Z 22007KT 17/01 A3007 RMK A01 T01660014  RH  036%=      5-min Rain = 0
KTH1 300528Z 22007KT 17/02 A3007 RMK A01 T01660015  RH  036%=      5-min Rain = 0
KTH1 300529Z 22006KT 17/01 A3007 RMK A01 T01660014  RH  036%=      5-min Rain = 0
KTH1 300530Z 22007KT 17/02 A3007 RMK A01 T01660016  RH  036%=      5-min Rain = 0
KTH1 300531Z 23007KT 17/02 A3007 RMK A01 T01650017  RH  037%=      5-min Rain = 0
KTH1 300532Z 22006KT 17/02 A3007 RMK A01 T01650018  RH  037%=      5-min Rain = 0
KTH1 300533Z 22006KT 16/02 A3007 RMK A01 T01640016  RH  037%=      5-min Rain = 0
KTH1 300534Z 22007KT 16/02 A3007 RMK A01 T01630016  RH  037%=      5-min Rain = 0
KTH1 300535Z 23006KT 16/02 A3007 RMK A01 T01630017  RH  037%=      5-min Rain = 0
KTH1 300536Z 22006KT 16/02 A3007 RMK A01 T01620017  RH  037%=      5-min Rain = 0
KTH1 300537Z 23006KT 16/01 A3007 RMK A01 T01620014  RH  037%=      5-min Rain = 0
KTH1 300538Z 23005KT 16/02 A3007 RMK A01 T01620015  RH  037%=      5-min Rain = 0
KTH1 300539Z 23006KT 16/02 A3007 RMK A01 T01610019  RH  038%=      5-min Rain = 0
KTH1 300540Z 22006KT 16/02 A3007 RMK A01 T01610020  RH  039%=      5-min Rain = 0
KTH1 300541Z 22006KT 16/02 A3007 RMK A01 T01590019  RH  039%=      5-min Rain = 0
KTH1 300542Z 22006KT 16/02 A3007 RMK A01 T01590019  RH  039%=      5-min Rain = 0
KTH1 300543Z 23006KT 16/02 A3006 RMK A01 T01590019  RH  039%=      5-min Rain = 0
KTH1 300544Z 22006KT 16/02 A3006 RMK A01 T01590019  RH  039%=      5-min Rain = 0
KTH1 300545Z 22006KT 16/02 A3006 RMK A01 T01590019  RH  039%=      5-min Rain = 0
KTH1 300546Z 23005KT 16/02 A3006 RMK A01 T01580020  RH  039%=      5-min Rain = 0
KTH1 300547Z 23005KT 16/02 A3006 RMK A01 T01580021  RH  040%=      5-min Rain = 0
KTH1 300548Z 23006KT 16/02 A3006 RMK A01 T01570020  RH  040%=      5-min Rain = 0
KTH1 300549Z 22006KT 16/02 A3006 RMK A01 T01560021  RH  040%=      5-min Rain = 0
KTH1 300550Z 23006KT 16/02 A3006 RMK A01 T01560022  RH  040%=      5-min Rain = 0
KTH1 300551Z 22006KT 16/02 A3006 RMK A01 T01560022  RH  040%=      5-min Rain = 0
KTH1 300552Z 23006KT 16/02 A3006 RMK A01 T01550019  RH  040%=      5-min Rain = 0
KTH1 300553Z 23006KT 16/02 A3006 RMK A01 T01560019  RH  040%=      5-min Rain = 0
KTH1 300554Z 23005KT 16/02 A3006 RMK A01 T01560020  RH  040%=      5-min Rain = 0
KTH1 300555Z 23006KT 16/02 A3006 RMK A01 T01550020  RH  040%=      5-min Rain = 0
KTH1 300556Z 23005KT 16/02 A3006 RMK A01 T01550021  RH  040%=      5-min Rain = 0
KTH1 300557Z 23005KT 16/02 A3006 RMK A01 T01550020  RH  040%=      5-min Rain = 0
KTH1 300558Z 22006KT 16/02 A3006 RMK A01 T01550021  RH  040%=      5-min Rain = 0
KTH1 300559Z 23006KT 16/02 A3006 RMK A01 T01550022  RH  041%=      5-min Rain = 0
KTH1 300600Z 23006KT 16/02 A3006 RMK A01 T01550017  RH  039%=      5-min Rain = 0
KTH1 300601Z 22006KT 16/02 A3006 RMK A01 T01550017  RH  039%=      5-min Rain = 0
KTH1 300602Z 22005KT 16/02 A3006 RMK A01 T01560018  RH  039%=      5-min Rain = 0
KTH1 300603Z 23005KT 16/02 A3006 RMK A01 T01560021  RH  040%=      5-min Rain = 0
KTH1 300604Z 23005KT 16/02 A3006 RMK A01 T01560021  RH  040%=      5-min Rain = 0
KTH1 300605Z 23005KT 16/02 A3006 RMK A01 T01550023  RH  041%=      5-min Rain = 0
KTH1 300606Z 23006KT 15/03 A3006 RMK A01 T01540026  RH  042%=      5-min Rain = 0
KTH1 300607Z 23006KT 15/03 A3006 RMK A01 T01540026  RH  042%=      5-min Rain = 0
KTH1 300608Z 23006KT 15/03 A3006 RMK A01 T01530027  RH  043%=      5-min Rain = 0
KTH1 300609Z 23005KT 15/03 A3006 RMK A01 T01520028  RH  043%=      5-min Rain = 0
KTH1 300610Z 24006KT 15/03 A3006 RMK A01 T01510027  RH  043%=      5-min Rain = 0
KTH1 300611Z 23005KT 15/03 A3006 RMK A01 T01500027  RH  044%=      5-min Rain = 0
KTH1 300612Z 23006KT 15/03 A3006 RMK A01 T01500028  RH  044%=      5-min Rain = 0
KTH1 300613Z 23006KT 15/03 A3006 RMK A01 T01490025  RH  043%=      5-min Rain = 0
KTH1 300614Z 23006KT 15/02 A3006 RMK A01 T01490024  RH  043%=      5-min Rain = 0
KTH1 300615Z 23006KT 15/02 A3006 RMK A01 T01490024  RH  043%=      5-min Rain = 0
KTH1 300616Z 23006KT 15/02 A3006 RMK A01 T01490023  RH  043%=      5-min Rain = 0
KTH1 300617Z 23005KT 15/02 A3006 RMK A01 T01490022  RH  042%=      5-min Rain = 0
KTH1 300618Z 23006KT 15/03 A3006 RMK A01 T01480025  RH  043%=      5-min Rain = 0
KTH1 300619Z 23005KT 15/02 A3006 RMK A01 T01490024  RH  043%=      5-min Rain = 0
KTH1 300620Z 23006KT 15/03 A3006 RMK A01 T01490026  RH  043%=      5-min Rain = 0
KTH1 300621Z 23005KT 15/03 A3006 RMK A01 T01490025  RH  043%=      5-min Rain = 0
KTH1 300622Z 23006KT 15/03 A3006 RMK A01 T01480025  RH  044%=      5-min Rain = 0
KTH1 300623Z 23006KT 15/02 A3006 RMK A01 T01480023  RH  043%=      5-min Rain = 0
KTH1 300624Z 23006KT 15/02 A3006 RMK A01 T01490024  RH  043%=      5-min Rain = 0
KTH1 300625Z 23006KT 15/02 A3006 RMK A01 T01490024  RH  043%=      5-min Rain = 0
KTH1 300626Z 24006KT 15/02 A3006 RMK A01 T01490024  RH  043%=      5-min Rain = 0
KTH1 300627Z 23006KT 15/03 A3006 RMK A01 T01490025  RH  043%=      5-min Rain = 0
KTH1 300628Z 23006KT 15/03 A3006 RMK A01 T01490025  RH  043%=      5-min Rain = 0
KTH1 300629Z 23006KT 15/02 A3006 RMK A01 T01490024  RH  043%=      5-min Rain = 0
KTH1 300630Z 23006KT 15/02 A3006 RMK A01 T01490024  RH  043%=      5-min Rain = 0
KTH1 300631Z 23006KT 15/02 A3006 RMK A01 T01480024  RH  043%=      5-min Rain = 0
KTH1 300632Z 23006KT 15/02 A3006 RMK A01 T01480024  RH  043%=      5-min Rain = 0
KTH1 300633Z 23006KT 15/02 A3006 RMK A01 T01480023  RH  043%=      5-min Rain = 0
KTH1 300634Z 23006KT 15/02 A3006 RMK A01 T01480022  RH  042%=      5-min Rain = 0
KTH1 300635Z 23007KT 15/02 A3006 RMK A01 T01490022  RH  042%=      5-min Rain = 0
KTH1 300636Z 23007KT 15/02 A3006 RMK A01 T01490021  RH  042%=      5-min Rain = 0
KTH1 300637Z 23006KT 15/02 A3006 RMK A01 T01490020  RH  042%=      5-min Rain = 0
KTH1 300638Z 23007KT 15/02 A3006 RMK A01 T01490020  RH  042%=      5-min Rain = 0
KTH1 300639Z 23007KT 15/02 A3006 RMK A01 T01490019  RH  041%=      5-min Rain = 0
KTH1 300640Z 23007KT 15/02 A3006 RMK A01 T01500018  RH  041%=      5-min Rain = 0
KTH1 300641Z 23006KT 15/02 A3006 RMK A01 T01500019  RH  041%=      5-min Rain = 0
KTH1 300642Z 23007KT 15/02 A3006 RMK A01 T01500019  RH  041%=      5-min Rain = 0
KTH1 300643Z 23006KT 15/02 A3006 RMK A01 T01500019  RH  041%=      5-min Rain = 0
KTH1 300644Z 23007KT 15/02 A3006 RMK A01 T01500019  RH  041%=      5-min Rain = 0
KTH1 300645Z 23008KT 15/02 A3006 RMK A01 T01500018  RH  041%=      5-min Rain = 0
KTH1 300646Z 23007KT 15/02 A3006 RMK A01 T01500017  RH  040%=      5-min Rain = 0
KTH1 300647Z 23007KT 15/02 A3006 RMK A01 T01510018  RH  041%=      5-min Rain = 0
KTH1 300648Z 23007KT 15/02 A3006 RMK A01 T01510019  RH  041%=      5-min Rain = 0
KTH1 300649Z 24007KT 15/02 A3006 RMK A01 T01510019  RH  041%=      5-min Rain = 0
KTH1 300650Z 23007KT 15/02 A3006 RMK A01 T01520018  RH  040%=      5-min Rain = 0
KTH1 300651Z 24007KT 15/02 A3006 RMK A01 T01520021  RH  041%=      5-min Rain = 0
KTH1 300652Z 23008KT 15/02 A3006 RMK A01 T01520021  RH  041%=      5-min Rain = 0
KTH1 300653Z 23008KT 15/02 A3006 RMK A01 T01510020  RH  041%=      5-min Rain = 0
KTH1 300654Z 23008KT 15/02 A3006 RMK A01 T01500018  RH  041%=      5-min Rain = 0
KTH1 300655Z 23008KT 15/02 A3006 RMK A01 T01500017  RH  040%=      5-min Rain = 0
KTH1 300656Z 23008KT 15/02 A3006 RMK A01 T01500017  RH  040%=      5-min Rain = 0
KTH1 300657Z 23008KT 15/02 A3006 RMK A01 T01500018  RH  041%=      5-min Rain = 0
KTH1 300658Z 23008KT 15/02 A3006 RMK A01 T01490017  RH  041%=      5-min Rain = 0
KTH1 300659Z 24007KT 15/02 A3006 RMK A01 T01490016  RH  040%=      5-min Rain = 0
KTH1 300700Z 23008KT 15/02 A3006 RMK A01 T01490016  RH  040%=      5-min Rain = 0
KTH1 300701Z 23008KT 15/02 A3006 RMK A01 T01490016  RH  040%=      5-min Rain = 0
KTH1 300702Z 23008KT 15/02 A3006 RMK A01 T01490016  RH  040%=      5-min Rain = 0
KTH1 300703Z 23008KT 15/02 A3006 RMK A01 T01490016  RH  040%=      5-min Rain = 0
KTH1 300704Z 23007KT 15/02 A3006 RMK A01 T01490017  RH  041%=      5-min Rain = 0
KTH1 300705Z 23007KT 15/02 A3006 RMK A01 T01480016  RH  041%=      5-min Rain = 0
KTH1 300706Z 23008KT 15/02 A3006 RMK A01 T01480015  RH  041%=      5-min Rain = 0
KTH1 300707Z 23008KT 15/02 A3006 RMK A01 T01480015  RH  040%=      5-min Rain = 0
KTH1 300708Z 23008KT 15/02 A3006 RMK A01 T01480017  RH  041%=      5-min Rain = 0
KTH1 300709Z 23008KT 15/02 A3006 RMK A01 T01490016  RH  041%=      5-min Rain = 0
KTH1 300710Z 23008KT 15/02 A3006 RMK A01 T01480016  RH  041%=      5-min Rain = 0
KTH1 300711Z 23009KT 15/02 A3006 RMK A01 T01480017  RH  041%=      5-min Rain = 0
KTH1 300712Z 23008KT 15/02 A3006 RMK A01 T01470015  RH  041%=      5-min Rain = 0
KTH1 300713Z 23008KT 15/02 A3006 RMK A01 T01480015  RH  041%=      5-min Rain = 0
KTH1 300714Z 23008KT 15/02 A3006 RMK A01 T01480016  RH  041%=      5-min Rain = 0
KTH1 300715Z 24008KT 15/02 A3006 RMK A01 T01470015  RH  041%=      5-min Rain = 0
KTH1 300716Z 23008KT 15/02 A3006 RMK A01 T01480016  RH  041%=      5-min Rain = 0
KTH1 300717Z 23008KT 15/02 A3006 RMK A01 T01480017  RH  041%=      5-min Rain = 0
KTH1 300718Z 24009KT 15/02 A3006 RMK A01 T01480016  RH  041%=      5-min Rain = 0
KTH1 300719Z 23008KT 15/02 A3006 RMK A01 T01480015  RH  041%=      5-min Rain = 0
KTH1 300720Z 23008KT 15/02 A3006 RMK A01 T01480017  RH  041%=      5-min Rain = 0
KTH1 300721Z 23007KT 15/02 A3006 RMK A01 T01480016  RH  041%=      5-min Rain = 0
KTH1 300722Z 23009KT 15/02 A3005 RMK A01 T01470017  RH  041%=      5-min Rain = 0
KTH1 300723Z 23008KT 15/02 A3005 RMK A01 T01470016  RH  041%=      5-min Rain = 0
KTH1 300724Z 23008KT 15/02 A3005 RMK A01 T01470016  RH  041%=      5-min Rain = 0
KTH1 300725Z 23008KT 15/02 A3005 RMK A01 T01480016  RH  041%=      5-min Rain = 0
KTH1 300726Z 23009KT 15/02 A3005 RMK A01 T01480016  RH  041%=      5-min Rain = 0
KTH1 300727Z 23009KT 15/02 A3005 RMK A01 T01480015  RH  040%=      5-min Rain = 0
KTH1 300728Z 23009KT 15/01 A3005 RMK A01 T01490014  RH  040%=      5-min Rain = 0
KTH1 300729Z 23009KT 15/01 A3005 RMK A01 T01500013  RH  039%=      5-min Rain = 0
KTH1 300730Z 23009KT 15/01 A3005 RMK A01 T01510013  RH  039%=      5-min Rain = 0
KTH1 300731Z 23009KT 15/01 A3006 RMK A01 T01520014  RH  039%=      5-min Rain = 0
KTH1 300732Z 23009KT 15/01 A3006 RMK A01 T01520013  RH  039%=      5-min Rain = 0
KTH1 300733Z 23009KT 15/01 A3006 RMK A01 T01530012  RH  038%=      5-min Rain = 0
KTH1 300734Z 23009KT 15/01 A3006 RMK A01 T01540013  RH  038%=      5-min Rain = 0
KTH1 300735Z 23009KT 15/01 A3006 RMK A01 T01540012  RH  038%=      5-min Rain = 0
KTH1 300736Z 23009KT 15/01 A3005 RMK A01 T01540011  RH  038%=      5-min Rain = 0
KTH1 300737Z 23009KT 16/01 A3005 RMK A01 T01550011  RH  038%=      5-min Rain = 0
KTH1 300738Z 23009KT 16/01 A3005 RMK A01 T01560010  RH  037%=      5-min Rain = 0
KTH1 300739Z 23009KT 16/01 A3005 RMK A01 T01570011  RH  037%=      5-min Rain = 0
KTH1 300740Z 23010KT 16/01 A3005 RMK A01 T01580011  RH  037%=      5-min Rain = 0
KTH1 300741Z 23009KT 16/01 A3005 RMK A01 T01580012  RH  037%=      5-min Rain = 0
KTH1 300742Z 23008KT 16/01 A3005 RMK A01 T01590012  RH  037%=      5-min Rain = 0
KTH1 300743Z 23010KT 16/01 A3005 RMK A01 T01580011  RH  037%=      5-min Rain = 0
KTH1 300744Z 23009KT 16/01 A3005 RMK A01 T01590011  RH  036%=      5-min Rain = 0
KTH1 300745Z 23008KT 16/01 A3005 RMK A01 T01590010  RH  036%=      5-min Rain = 0
KTH1 300746Z 23009G14KT 16/01 A3005 RMK A01 T01600010  RH  036%=      5-min Rain = 0
KTH1 300747Z 23008KT 16/01 A3005 RMK A01 T01610009  RH  036%=      5-min Rain = 0
KTH1 300748Z 22009KT 16/01 A3005 RMK A01 T01610008  RH  035%=      5-min Rain = 0
KTH1 300749Z 23008KT 16/01 A3005 RMK A01 T01620008  RH  035%=      5-min Rain = 0
KTH1 300750Z 23009KT 16/01 A3005 RMK A01 T01620009  RH  035%=      5-min Rain = 0
KTH1 300751Z 23009KT 16/01 A3005 RMK A01 T01630010  RH  036%=      5-min Rain = 0
KTH1 300752Z 23009KT 16/01 A3005 RMK A01 T01630008  RH  035%=      5-min Rain = 0
KTH1 300753Z 23009KT 16/01 A3005 RMK A01 T01630009  RH  035%=      5-min Rain = 0
KTH1 300754Z 23009KT 16/01 A3005 RMK A01 T01630008  RH  035%=      5-min Rain = 0
KTH1 300755Z 23009KT 16/01 A3005 RMK A01 T01640008  RH  035%=      5-min Rain = 0
KTH1 300756Z 23008KT 16/01 A3005 RMK A01 T01640008  RH  035%=      5-min Rain = 0
KTH1 300757Z 23008KT 16/01 A3005 RMK A01 T01640009  RH  035%=      5-min Rain = 0
KTH1 300758Z 23009KT 16/01 A3005 RMK A01 T01640009  RH  035%=      5-min Rain = 0
KTH1 300759Z 23010KT 16/01 A3005 RMK A01 T01640008  RH  035%=      5-min Rain = 0
KTH1 300800Z 23009KT 16/01 A3005 RMK A01 T01640008  RH  035%=      5-min Rain = 0
KTH1 300801Z 23009KT 16/01 A3005 RMK A01 T01640007  RH  035%=      5-min Rain = 0
KTH1 300802Z 23009KT 17/01 A3005 RMK A01 T01650008  RH  035%=      5-min Rain = 0
KTH1 300803Z 23010KT 17/01 A3005 RMK A01 T01650008  RH  035%=      5-min Rain = 0
KTH1 300804Z 23009KT 17/01 A3005 RMK A01 T01650008  RH  034%=      5-min Rain = 0
KTH1 300805Z 23010KT 17/01 A3005 RMK A01 T01660007  RH  034%=      5-min Rain = 0
KTH1 300806Z 23009KT 17/01 A3005 RMK A01 T01660009  RH  035%=      5-min Rain = 0
KTH1 300807Z 23008KT 17/01 A3005 RMK A01 T01660008  RH  034%=      5-min Rain = 0
KTH1 300808Z 23009KT 17/01 A3005 RMK A01 T01660008  RH  034%=      5-min Rain = 0
KTH1 300809Z 23010KT 17/01 A3005 RMK A01 T01660007  RH  034%=      5-min Rain = 0
KTH1 300810Z 23010KT 17/01 A3005 RMK A01 T01670007  RH  034%=      5-min Rain = 0
KTH1 300811Z 23010KT 17/01 A3005 RMK A01 T01670007  RH  034%=      5-min Rain = 0
KTH1 300812Z 23009G14KT 17/01 A3005 RMK A01 T01670008  RH  034%=      5-min Rain = 0
KTH1 300813Z 23009KT 17/01 A3005 RMK A01 T01670006  RH  034%=      5-min Rain = 0
KTH1 300814Z 23009KT 17/01 A3005 RMK A01 T01670008  RH  034%=      5-min Rain = 0
KTH1 300815Z 23010KT 17/01 A3005 RMK A01 T01670007  RH  034%=      5-min Rain = 0
KTH1 300816Z 23010KT 17/01 A3005 RMK A01 T01680007  RH  034%=      5-min Rain = 0
KTH1 300817Z 23009KT 17/01 A3005 RMK A01 T01680006  RH  034%=      5-min Rain = 0
KTH1 300818Z 23008KT 17/01 A3005 RMK A01 T01680007  RH  034%=      5-min Rain = 0
KTH1 300819Z 22010KT 17/01 A3005 RMK A01 T01670007  RH  034%=      5-min Rain = 0
KTH1 300820Z 23010G15KT 17/01 A3005 RMK A01 T01670007  RH  034%=      5-min Rain = 0
KTH1 300821Z 22010KT 17/01 A3005 RMK A01 T01680005  RH  033%=      5-min Rain = 0
KTH1 300822Z 23010G15KT 17/01 A3005 RMK A01 T01680006  RH  033%=      5-min Rain = 0
KTH1 300823Z 23009KT 17/01 A3005 RMK A01 T01680006  RH  033%=      5-min Rain = 0
KTH1 300824Z 23009KT 17/01 A3005 RMK A01 T01680006  RH  033%=      5-min Rain = 0
KTH1 300825Z 23009KT 17/01 A3005 RMK A01 T01680006  RH  033%=      5-min Rain = 0
KTH1 300826Z 23009KT 17/01 A3005 RMK A01 T01680005  RH  033%=      5-min Rain = 0
KTH1 300827Z 23011KT 17/01 A3005 RMK A01 T01690006  RH  033%=      5-min Rain = 0
KTH1 300828Z 23008G13KT 17/01 A3005 RMK A01 T01690005  RH  033%=      5-min Rain = 0
KTH1 300829Z 23008KT 17/01 A3005 RMK A01 T01690006  RH  033%=      5-min Rain = 0
KTH1 300830Z 23010KT 17/01 A3004 RMK A01 T01690006  RH  033%=      5-min Rain = 0
KTH1 300831Z 22010KT 17/01 A3004 RMK A01 T01690005  RH  033%=      5-min Rain = 0
KTH1 300832Z 23009KT 17/01 A3004 RMK A01 T01690006  RH  033%=      5-min Rain = 0
KTH1 300833Z 23010KT 17/01 A3004 RMK A01 T01700006  RH  033%=      5-min Rain = 0
KTH1 300834Z 23010KT 17/01 A3004 RMK A01 T01690006  RH  033%=      5-min Rain = 0
KTH1 300835Z 23009KT 17/01 A3004 RMK A01 T01700006  RH  033%=      5-min Rain = 0
KTH1 300836Z 23009KT 17/01 A3004 RMK A01 T01700006  RH  033%=      5-min Rain = 0
KTH1 300837Z 23010KT 17/01 A3004 RMK A01 T01700005  RH  033%=      5-min Rain = 0
KTH1 300838Z 23011KT 17/01 A3004 RMK A01 T01700006  RH  033%=      5-min Rain = 0
KTH1 300839Z 23010KT 17/01 A3004 RMK A01 T01710005  RH  033%=      5-min Rain = 0
KTH1 300840Z 23010KT 17/01 A3004 RMK A01 T01700006  RH  033%=      5-min Rain = 0
KTH1 300841Z 23009G15KT 17/01 A3004 RMK A01 T01700005  RH  033%=      5-min Rain = 0
KTH1 300842Z 23010KT 17/01 A3004 RMK A01 T01700006  RH  033%=      5-min Rain = 0
KTH1 300843Z 23009KT 17/01 A3004 RMK A01 T01700006  RH  033%=      5-min Rain = 0
KTH1 300844Z 23009KT 17/01 A3004 RMK A01 T01700006  RH  033%=      5-min Rain = 0
KTH1 300845Z 23010KT 17/01 A3004 RMK A01 T01700007  RH  033%=      5-min Rain = 0
KTH1 300846Z 23009KT 17/01 A3004 RMK A01 T01700006  RH  033%=      5-min Rain = 0
KTH1 300847Z 23010KT 17/01 A3004 RMK A01 T01700006  RH  033%=      5-min Rain = 0
KTH1 300848Z 23009KT 17/01 A3004 RMK A01 T01690006  RH  033%=      5-min Rain = 0
KTH1 300849Z 22009KT 17/01 A3004 RMK A01 T01690006  RH  033%=      5-min Rain = 0
KTH1 300850Z 23009KT 17/01 A3004 RMK A01 T01690006  RH  033%=      5-min Rain = 0
KTH1 300851Z 23008KT 17/01 A3004 RMK A01 T01700007  RH  033%=      5-min Rain = 0
KTH1 300852Z 23010KT 17/01 A3004 RMK A01 T01700006  RH  033%=      5-min Rain = 0
KTH1 300853Z 23010KT 17/01 A3004 RMK A01 T01700005  RH  033%=      5-min Rain = 0
KTH1 300854Z 23010KT 17/01 A3004 RMK A01 T01710005  RH  033%=      5-min Rain = 0
KTH1 300855Z 23009KT 17/01 A3004 RMK A01 T01710006  RH  033%=      5-min Rain = 0
KTH1 300856Z 23010KT 17/01 A3004 RMK A01 T01710005  RH  033%=      5-min Rain = 0
KTH1 300857Z 23008KT 17/01 A3004 RMK A01 T01710005  RH  033%=      5-min Rain = 0
KTH1 300858Z 23010KT 17/01 A3004 RMK A01 T01710007  RH  033%=      5-min Rain = 0
KTH1 300859Z 23009KT 17/01 A3004 RMK A01 T01710006  RH  033%=      5-min Rain = 0
KTH1 300900Z 23008KT 17/01 A3004 RMK A01 T01710006  RH  033%=      5-min Rain = 0
KTH1 300901Z 23009KT 17/01 A3004 RMK A01 T01710005  RH  033%=      5-min Rain = 0
KTH1 300902Z 23010KT 17/01 A3004 RMK A01 T01720006  RH  033%=      5-min Rain = 0
KTH1 300903Z 23010KT 17/00 A3004 RMK A01 T01720004  RH  032%=      5-min Rain = 0
KTH1 300904Z 23010KT 17/01 A3004 RMK A01 T01730005  RH  032%=      5-min Rain = 0
KTH1 300905Z 24010KT 17/00 A3004 RMK A01 T01740004  RH  032%=      5-min Rain = 0
KTH1 300906Z 23011KT 18/01 A3004 RMK A01 T01750005  RH  032%=      5-min Rain = 0
KTH1 300907Z 23009KT 18/01 A3004 RMK A01 T01750005  RH  032%=      5-min Rain = 0
KTH1 300908Z 23010KT 18/01 A3004 RMK A01 T01750005  RH  032%=      5-min Rain = 0
KTH1 300909Z 23010KT 18/01 A3004 RMK A01 T01760007  RH  032%=      5-min Rain = 0
KTH1 300910Z 23011KT 18/01 A3004 RMK A01 T01760005  RH  031%=      5-min Rain = 0
KTH1 300911Z 23010KT 18/01 A3004 RMK A01 T01770005  RH  031%=      5-min Rain = 0
KTH1 300912Z 23009KT 18/01 A3004 RMK A01 T01770006  RH  031%=      5-min Rain = 0
KTH1 300913Z 23009KT 18/01 A3004 RMK A01 T01760007  RH  032%=      5-min Rain = 0
KTH1 300914Z 23010KT 18/01 A3004 RMK A01 T01750006  RH  032%=      5-min Rain = 0
KTH1 300915Z 23010KT 18/01 A3004 RMK A01 T01760005  RH  032%=      5-min Rain = 0
KTH1 300916Z 24010KT 18/01 A3004 RMK A01 T01760006  RH  032%=      5-min Rain = 0
KTH1 300917Z 24009KT 18/01 A3004 RMK A01 T01760006  RH  032%=      5-min Rain = 0
KTH1 300918Z 23009KT 18/01 A3004 RMK A01 T01760008  RH  032%=      5-min Rain = 0
KTH1 300919Z 23010KT 18/01 A3004 RMK A01 T01760006  RH  032%=      5-min Rain = 0
KTH1 300920Z 24010KT 18/01 A3004 RMK A01 T01760007  RH  032%=      5-min Rain = 0
KTH1 300921Z 23009KT 18/01 A3004 RMK A01 T01770008  RH  032%=      5-min Rain = 0
KTH1 300922Z 23009KT 18/01 A3004 RMK A01 T01770010  RH  032%=      5-min Rain = 0
KTH1 300923Z 23010KT 18/01 A3004 RMK A01 T01770008  RH  032%=      5-min Rain = 0
KTH1 300924Z 24009KT 18/01 A3004 RMK A01 T01760006  RH  032%=      5-min Rain = 0
KTH1 300925Z 23009KT 18/01 A3004 RMK A01 T01760010  RH  032%=      5-min Rain = 0
KTH1 300926Z 23010KT 18/01 A3004 RMK A01 T01760008  RH  032%=      5-min Rain = 0
KTH1 300927Z 23010KT 18/01 A3004 RMK A01 T01760009  RH  032%=      5-min Rain = 0
KTH1 300928Z 23009KT 18/01 A3004 RMK A01 T01750008  RH  032%=      5-min Rain = 0
KTH1 300929Z 24008KT 18/01 A3004 RMK A01 T01750010  RH  033%=      5-min Rain = 0
KTH1 300930Z 24009KT 18/01 A3004 RMK A01 T01750013  RH  034%=      5-min Rain = 0
KTH1 300931Z 24009KT 18/01 A3004 RMK A01 T01750013  RH  034%=      5-min Rain = 0
KTH1 300932Z 23010KT 18/01 A3004 RMK A01 T01750011  RH  033%=      5-min Rain = 0
KTH1 300933Z 24009G14KT 17/01 A3004 RMK A01 T01740010  RH  033%=      5-min Rain = 0
KTH1 300934Z 24009KT 17/01 A3004 RMK A01 T01740010  RH  033%=      5-min Rain = 0
KTH1 300935Z 23008KT 17/01 A3004 RMK A01 T01740012  RH  034%=      5-min Rain = 0
KTH1 300936Z 24009KT 17/01 A3004 RMK A01 T01730014  RH  034%=      5-min Rain = 0
KTH1 300937Z 23011KT 17/01 A3004 RMK A01 T01730011  RH  034%=      5-min Rain = 0
KTH1 300938Z 24010KT 17/01 A3004 RMK A01 T01730009  RH  033%=      5-min Rain = 0
KTH1 300939Z 24008KT 17/01 A3004 RMK A01 T01730011  RH  033%=      5-min Rain = 0
KTH1 300940Z 24008KT 17/01 A3004 RMK A01 T01730011  RH  034%=      5-min Rain = 0
KTH1 300941Z 24009KT 17/01 A3004 RMK A01 T01720012  RH  034%=      5-min Rain = 0
KTH1 300942Z 24009KT 17/02 A3004 RMK A01 T01710015  RH  035%=      5-min Rain = 0
KTH1 300943Z 24009KT 17/01 A3004 RMK A01 T01710014  RH  035%=      5-min Rain = 0
KTH1 300944Z 24009KT 17/01 A3004 RMK A01 T01710014  RH  035%=      5-min Rain = 0
KTH1 300945Z 24010KT 17/01 A3004 RMK A01 T01700013  RH  035%=      5-min Rain = 0
KTH1 300946Z 24008KT 17/01 A3004 RMK A01 T01690011  RH  034%=      5-min Rain = 0
KTH1 300947Z 23008KT 17/01 A3004 RMK A01 T01680013  RH  035%=      5-min Rain = 0
KTH1 300948Z 24008KT 17/01 A3004 RMK A01 T01680011  RH  035%=      5-min Rain = 0
KTH1 300949Z 24008KT 17/01 A3004 RMK A01 T01680012  RH  035%=      5-min Rain = 0
KTH1 300950Z 24008KT 17/01 A3004 RMK A01 T01680013  RH  035%=      5-min Rain = 0
KTH1 300951Z 24008KT 17/01 A3003 RMK A01 T01680013  RH  035%=      5-min Rain = 0
KTH1 300952Z 24008KT 17/01 A3003 RMK A01 T01670014  RH  036%=      5-min Rain = 0
KTH1 300953Z 24007KT 17/01 A3003 RMK A01 T01660014  RH  036%=      5-min Rain = 0
KTH1 300954Z 24007KT 17/01 A3003 RMK A01 T01650013  RH  036%=      5-min Rain = 0
KTH1 300955Z 24008KT 16/01 A3003 RMK A01 T01640013  RH  036%=      5-min Rain = 0
KTH1 300956Z 24008KT 16/01 A3003 RMK A01 T01640012  RH  036%=      5-min Rain = 0
KTH1 300957Z 24008KT 16/01 A3003 RMK A01 T01640014  RH  036%=      5-min Rain = 0
KTH1 300958Z 24009KT 16/01 A3003 RMK A01 T01640013  RH  036%=      5-min Rain = 0
KTH1 300959Z 24009KT 16/01 A3003 RMK A01 T01640012  RH  036%=      5-min Rain = 0
KTH1 301000Z 24008KT 16/01 A3003 RMK A01 T01640011  RH  035%=      5-min Rain = 0
KTH1 301001Z 23008KT 16/01 A3003 RMK A01 T01630011  RH  036%=      5-min Rain = 0
KTH1 301002Z 24008KT 16/01 A3003 RMK A01 T01630008  RH  035%=      5-min Rain = 0
KTH1 301003Z 23008KT 16/01 A3003 RMK A01 T01620010  RH  036%=      5-min Rain = 0
KTH1 301004Z 24008KT 16/01 A3003 RMK A01 T01630010  RH  036%=      5-min Rain = 0
KTH1 301005Z 24009KT 16/01 A3003 RMK A01 T01620007  RH  035%=      5-min Rain = 0
KTH1 301006Z 24008KT 16/01 A3003 RMK A01 T01630008  RH  035%=      5-min Rain = 0
KTH1 301007Z 24009KT 16/01 A3003 RMK A01 T01620009  RH  035%=      5-min Rain = 0
KTH1 301008Z 24008KT 16/01 A3003 RMK A01 T01620008  RH  035%=      5-min Rain = 0
KTH1 301009Z 24008KT 16/01 A3003 RMK A01 T01620008  RH  035%=      5-min Rain = 0
KTH1 301010Z 24009KT 16/01 A3003 RMK A01 T01620009  RH  035%=      5-min Rain = 0
KTH1 301011Z 24008KT 16/01 A3003 RMK A01 T01620009  RH  035%=      5-min Rain = 0
KTH1 301012Z 23009KT 16/01 A3003 RMK A01 T01620009  RH  035%=      5-min Rain = 0
KTH1 301013Z 24009KT 16/01 A3003 RMK A01 T01630008  RH  035%=      5-min Rain = 0
KTH1 301014Z 24008KT 16/01 A3003 RMK A01 T01630010  RH  035%=      5-min Rain = 0
KTH1 301015Z 24008KT 16/01 A3003 RMK A01 T01620010  RH  036%=      5-min Rain = 0
KTH1 301016Z 23008KT 16/01 A3003 RMK A01 T01620011  RH  036%=      5-min Rain = 0
KTH1 301017Z 23009KT 16/01 A3003 RMK A01 T01620012  RH  036%=      5-min Rain = 0
KTH1 301018Z 24009KT 16/01 A3003 RMK A01 T01630012  RH  036%=      5-min Rain = 0
KTH1 301019Z 24009KT 16/01 A3003 RMK A01 T01630012  RH  036%=      5-min Rain = 0
KTH1 301020Z 24008KT 16/01 A3003 RMK A01 T01630013  RH  036%=      5-min Rain = 0
KTH1 301021Z 23009KT 16/01 A3003 RMK A01 T01630012  RH  036%=      5-min Rain = 0
KTH1 301022Z 24009KT 16/01 A3003 RMK A01 T01630011  RH  036%=      5-min Rain = 0
KTH1 301023Z 23008KT 16/01 A3003 RMK A01 T01630012  RH  036%=      5-min Rain = 0
KTH1 301024Z 24008KT 16/01 A3003 RMK A01 T01640011  RH  036%=      5-min Rain = 0
KTH1 301025Z 24009KT 17/01 A3003 RMK A01 T01650012  RH  036%=      5-min Rain = 0
KTH1 301026Z 24008KT 16/01 A3003 RMK A01 T01640010  RH  035%=      5-min Rain = 0
KTH1 301027Z 24009KT 16/01 A3003 RMK A01 T01640008  RH  035%=      5-min Rain = 0
KTH1 301028Z 23010KT 16/01 A3003 RMK A01 T01640005  RH  034%=      5-min Rain = 0
KTH1 301029Z 24009KT 17/01 A3003 RMK A01 T01650005  RH  034%=      5-min Rain = 0
KTH1 301030Z 23009KT 17/01 A3003 RMK A01 T01650006  RH  034%=      5-min Rain = 0
KTH1 301031Z 23008KT 17/01 A3003 RMK A01 T01650006  RH  034%=      5-min Rain = 0
KTH1 301032Z 23010KT 17/01 A3003 RMK A01 T01650005  RH  034%=      5-min Rain = 0
KTH1 301033Z 24008KT 17/01 A3003 RMK A01 T01650006  RH  034%=      5-min Rain = 0
KTH1 301034Z 23008KT 17/01 A3003 RMK A01 T01650006  RH  034%=      5-min Rain = 0
KTH1 301035Z 24009KT 17/01 A3003 RMK A01 T01650007  RH  034%=      5-min Rain = 0
KTH1 301036Z 24008KT 17/01 A3003 RMK A01 T01650010  RH  035%=      5-min Rain = 0
KTH1 301037Z 24009KT 17/01 A3003 RMK A01 T01650009  RH  035%=      5-min Rain = 0
KTH1 301038Z 24009KT 17/01 A3003 RMK A01 T01650010  RH  035%=      5-min Rain = 0
KTH1 301039Z 24009KT 17/01 A3003 RMK A01 T01650010  RH  035%=      5-min Rain = 0
KTH1 301040Z 24010KT 17/02 A3003 RMK A01 T01660015  RH  036%=      5-min Rain = 0
KTH1 301041Z 24008KT 17/02 A3003 RMK A01 T01660016  RH  036%=      5-min Rain = 0
KTH1 301042Z 24009KT 17/02 A3003 RMK A01 T01660017  RH  037%=      5-min Rain = 0
KTH1 301043Z 24009KT 17/02 A3003 RMK A01 T01670019  RH  037%=      5-min Rain = 0
KTH1 301044Z 25009KT 17/02 A3003 RMK A01 T01670024  RH  038%=      5-min Rain = 0
KTH1 301045Z 25010KT 17/03 A3003 RMK A01 T01670026  RH  039%=      5-min Rain = 0
KTH1 301046Z 25010KT 17/02 A3003 RMK A01 T01670023  RH  038%=      5-min Rain = 0
KTH1 301047Z 25009KT 17/02 A3003 RMK A01 T01670023  RH  038%=      5-min Rain = 0
KTH1 301048Z 24008KT 17/03 A3003 RMK A01 T01670027  RH  039%=      5-min Rain = 0
KTH1 301049Z 24009KT 17/02 A3003 RMK A01 T01680023  RH  038%=      5-min Rain = 0
KTH1 301050Z 24010KT 17/02 A3003 RMK A01 T01680024  RH  038%=      5-min Rain = 0
KTH1 301051Z 25009KT 17/03 A3003 RMK A01 T01680031  RH  040%=      5-min Rain = 0
KTH1 301052Z 24010KT 17/03 A3003 RMK A01 T01680031  RH  040%=      5-min Rain = 0
KTH1 301053Z 24008KT 17/03 A3003 RMK A01 T01680028  RH  039%=      5-min Rain = 0
KTH1 301054Z 25009KT 17/03 A3003 RMK A01 T01690032  RH  040%=      5-min Rain = 0
KTH1 301055Z 24009KT 17/03 A3003 RMK A01 T01680031  RH  040%=      5-min Rain = 0
KTH1 301056Z 25009KT 17/03 A3003 RMK A01 T01680032  RH  040%=      5-min Rain = 0
KTH1 301057Z 24010KT 17/03 A3003 RMK A01 T01680034  RH  041%=      5-min Rain = 0
KTH1 301058Z 25009KT 17/03 A3003 RMK A01 T01680032  RH  040%=      5-min Rain = 0
KTH1 301059Z 24009KT 17/03 A3003 RMK A01 T01680032  RH  040%=      5-min Rain = 0
KTH1 301100Z 24009KT 17/03 A3003 RMK A01 T01680032  RH  040%=      5-min Rain = 0
KTH1 301101Z 24008KT 17/03 A3003 RMK A01 T01680031  RH  040%=      5-min Rain = 0
KTH1 301102Z 24009KT 17/03 A3003 RMK A01 T01670031  RH  040%=      5-min Rain = 0
KTH1 301103Z 25009KT 17/03 A3003 RMK A01 T01670031  RH  040%=      5-min Rain = 0
KTH1 301104Z 25009KT 17/03 A3003 RMK A01 T01670032  RH  041%=      5-min Rain = 0
KTH1 301105Z 25009KT 17/03 A3003 RMK A01 T01660032  RH  041%=      5-min Rain = 0
KTH1 301106Z 25009KT 17/03 A3003 RMK A01 T01660033  RH  041%=      5-min Rain = 0
KTH1 301107Z 25009KT 17/04 A3003 RMK A01 T01660035  RH  042%=      5-min Rain = 0
KTH1 301108Z 25009KT 17/04 A3003 RMK A01 T01660039  RH  043%=      5-min Rain = 0
KTH1 301109Z 25009KT 17/04 A3003 RMK A01 T01660038  RH  042%=      5-min Rain = 0
KTH1 301110Z 25009KT 17/04 A3003 RMK A01 T01660040  RH  043%=      5-min Rain = 0
KTH1 301111Z 25008KT 17/04 A3003 RMK A01 T01660037  RH  042%=      5-min Rain = 0
KTH1 301112Z 25009KT 17/04 A3003 RMK A01 T01660036  RH  042%=      5-min Rain = 0
KTH1 301113Z 25009KT 17/04 A3003 RMK A01 T01650037  RH  042%=      5-min Rain = 0
KTH1 301114Z 25008KT 17/04 A3003 RMK A01 T01650043  RH  044%=      5-min Rain = 0
KTH1 301115Z 25008KT 17/04 A3004 RMK A01 T01650042  RH  044%=      5-min Rain = 0
KTH1 301116Z 25009KT 17/04 A3004 RMK A01 T01650042  RH  044%=      5-min Rain = 0
KTH1 301117Z 26008KT 17/04 A3004 RMK A01 T01650040  RH  043%=      5-min Rain = 0
KTH1 301118Z 25009KT 16/04 A3004 RMK A01 T01640042  RH  044%=      5-min Rain = 0
KTH1 301119Z 25010KT 16/04 A3004 RMK A01 T01640042  RH  044%=      5-min Rain = 0
KTH1 301120Z 25010KT 16/04 A3004 RMK A01 T01640040  RH  044%=      5-min Rain = 0
KTH1 301121Z 26010KT 16/04 A3004 RMK A01 T01640044  RH  045%=      5-min Rain = 0
KTH1 301122Z 25010KT 16/05 A3004 RMK A01 T01630045  RH  046%=      5-min Rain = 0
KTH1 301123Z 25010KT 16/04 A3004 RMK A01 T01630043  RH  045%=      5-min Rain = 0
KTH1 301124Z 25009KT 16/05 A3004 RMK A01 T01630047  RH  046%=      5-min Rain = 0
KTH1 301125Z 25011KT 16/05 A3004 RMK A01 T01630045  RH  045%=      5-min Rain = 0
KTH1 301126Z 25010KT 16/04 A3004 RMK A01 T01630042  RH  044%=      5-min Rain = 0
KTH1 301127Z 25010KT 16/05 A3004 RMK A01 T01620047  RH  046%=      5-min Rain = 0
KTH1 301128Z 25010KT 16/04 A3004 RMK A01 T01610036  RH  043%=      5-min Rain = 0
KTH1 301129Z 25010KT 16/04 A3004 RMK A01 T01610041  RH  045%=      5-min Rain = 0
KTH1 301130Z 25010KT 16/04 A3004 RMK A01 T01610038  RH  044%=      5-min Rain = 0
KTH1 301131Z 25011KT 16/04 A3004 RMK A01 T01620036  RH  043%=      5-min Rain = 0
KTH1 301132Z 25010KT 16/03 A3004 RMK A01 T01610034  RH  043%=      5-min Rain = 0
KTH1 301133Z 25010KT 16/03 A3004 RMK A01 T01610033  RH  042%=      5-min Rain = 0
KTH1 301134Z 25010KT 16/04 A3004 RMK A01 T01610036  RH  043%=      5-min Rain = 0
KTH1 301135Z 25011KT 16/04 A3004 RMK A01 T01610039  RH  044%=      5-min Rain = 0
KTH1 301136Z 25010KT 16/04 A3004 RMK A01 T01610035  RH  043%=      5-min Rain = 0
KTH1 301137Z 25010KT 16/03 A3004 RMK A01 T01600034  RH  043%=      5-min Rain = 0
KTH1 301138Z 25010KT 16/04 A3004 RMK A01 T01600036  RH  043%=      5-min Rain = 0
KTH1 301139Z 25009KT 16/04 A3004 RMK A01 T01600043  RH  046%=      5-min Rain = 0
KTH1 301140Z 25010KT 16/04 A3004 RMK A01 T01600042  RH  045%=      5-min Rain = 0
KTH1 301141Z 25009KT 16/04 A3004 RMK A01 T01600040  RH  045%=      5-min Rain = 0
KTH1 301142Z 25008KT 16/04 A3004 RMK A01 T01600042  RH  045%=      5-min Rain = 0
KTH1 301143Z 25009KT 16/04 A3004 RMK A01 T01600037  RH  044%=      5-min Rain = 0
KTH1 301144Z 25009KT 16/04 A3004 RMK A01 T01600038  RH  044%=      5-min Rain = 0
KTH1 301145Z 25009KT 16/04 A3004 RMK A01 T01600037  RH  044%=      5-min Rain = 0
KTH1 301146Z 25009KT 16/04 A3004 RMK A01 T01590042  RH  046%=      5-min Rain = 0
KTH1 301147Z 25009KT 16/04 A3004 RMK A01 T01590041  RH  045%=      5-min Rain = 0
KTH1 301148Z 24008KT 16/04 A3004 RMK A01 T01590039  RH  045%=      5-min Rain = 0
KTH1 301149Z 25009KT 16/04 A3004 RMK A01 T01590036  RH  044%=      5-min Rain = 0
KTH1 301150Z 24008KT 16/04 A3004 RMK A01 T01590038  RH  045%=      5-min Rain = 0
KTH1 301151Z 24009KT 16/04 A3004 RMK A01 T01590038  RH  044%=      5-min Rain = 0
KTH1 301152Z 24009KT 16/04 A3004 RMK A01 T01590036  RH  044%=      5-min Rain = 0
KTH1 301153Z 24009KT 16/04 A3004 RMK A01 T01590039  RH  045%=      5-min Rain = 0
KTH1 301154Z 24010KT 16/04 A3004 RMK A01 T01590039  RH  045%=      5-min Rain = 0
KTH1 301155Z 24009KT 16/04 A3004 RMK A01 T01590038  RH  044%=      5-min Rain = 0
KTH1 301156Z 25010KT 16/04 A3004 RMK A01 T01600039  RH  045%=      5-min Rain = 0
KTH1 301157Z 25010KT 16/04 A3004 RMK A01 T01590038  RH  044%=      5-min Rain = 0
KTH1 301158Z 25010KT 16/04 A3004 RMK A01 T01590039  RH  045%=      5-min Rain = 0
KTH1 301159Z 25011KT 16/04 A3004 RMK A01 T01590041  RH  045%=      5-min Rain = 0
KTH1 301200Z 25010KT 16/04 A3004 RMK A01 T01590041  RH  045%=      5-min Rain = 0
KTH1 301201Z 25011KT 16/04 A3004 RMK A01 T01590035  RH  044%=      5-min Rain = 0
KTH1 301202Z 25010KT 16/03 A3004 RMK A01 T01590033  RH  043%=      5-min Rain = 0
KTH1 301203Z 25009KT 16/04 A3004 RMK A01 T01590040  RH  045%=      5-min Rain = 0
KTH1 301204Z 25009KT 16/04 A3004 RMK A01 T01590039  RH  045%=      5-min Rain = 0
KTH1 301205Z 25009KT 16/04 A3004 RMK A01 T01590037  RH  044%=      5-min Rain = 0
KTH1 301206Z 25010KT 16/04 A3004 RMK A01 T01590035  RH  044%=      5-min Rain = 0
KTH1 301207Z 25008KT 16/04 A3004 RMK A01 T01590039  RH  045%=      5-min Rain = 0
KTH1 301208Z 25009KT 16/04 A3004 RMK A01 T01580038  RH  045%=      5-min Rain = 0
KTH1 301209Z 26008KT 16/04 A3004 RMK A01 T01590037  RH  044%=      5-min Rain = 0
KTH1 301210Z 25009KT 16/04 A3005 RMK A01 T01590044  RH  046%=      5-min Rain = 0
KTH1 301211Z 25010KT 16/04 A3005 RMK A01 T01590039  RH  045%=      5-min Rain = 0
KTH1 301212Z 26009KT 16/04 A3005 RMK A01 T01590042  RH  046%=      5-min Rain = 0
KTH1 301213Z 25008KT 16/04 A3005 RMK A01 T01590041  RH  045%=      5-min Rain = 0
KTH1 301214Z 25009KT 16/05 A3005 RMK A01 T01590045  RH  047%=      5-min Rain = 0
KTH1 301215Z 25010KT 16/04 A3005 RMK A01 T01590042  RH  046%=      5-min Rain = 0
KTH1 301216Z 25010KT 16/04 A3005 RMK A01 T01580040  RH  045%=      5-min Rain = 0
KTH1 301217Z 25010KT 16/04 A3005 RMK A01 T01580038  RH  045%=      5-min Rain = 0
KTH1 301218Z 25010KT 16/04 A3005 RMK A01 T01580039  RH  045%=      5-min Rain = 0
KTH1 301219Z 25009KT 16/04 A3005 RMK A01 T01580037  RH  044%=      5-min Rain = 0
KTH1 301220Z 24009KT 16/04 A3005 RMK A01 T01580035  RH  044%=      5-min Rain = 0
KTH1 301221Z 25009KT 16/03 A3005 RMK A01 T01580030  RH  042%=      5-min Rain = 0
KTH1 301222Z 24008KT 16/03 A3005 RMK A01 T01580028  RH  042%=      5-min Rain = 0
KTH1 301223Z 24008KT 16/02 A3005 RMK A01 T01570022  RH  040%=      5-min Rain = 0
KTH1 301224Z 24009KT 16/02 A3005 RMK A01 T01560016  RH  039%=      5-min Rain = 0
KTH1 301225Z 24008KT 16/01 A3005 RMK A01 T01560014  RH  038%=      5-min Rain = 0
KTH1 301226Z 24008KT 16/02 A3005 RMK A01 T01550016  RH  039%=      5-min Rain = 0
KTH1 301227Z 24007KT 15/02 A3005 RMK A01 T01540016  RH  039%=      5-min Rain = 0
KTH1 301228Z 24008KT 15/02 A3005 RMK A01 T01540017  RH  040%=      5-min Rain = 0
KTH1 301229Z 24009KT 15/02 A3005 RMK A01 T01530017  RH  040%=      5-min Rain = 0
KTH1 301230Z 23008KT 15/02 A3005 RMK A01 T01530017  RH  040%=      5-min Rain = 0
KTH1 301231Z 24008KT 15/02 A3005 RMK A01 T01530019  RH  040%=      5-min Rain = 0
KTH1 301232Z 24008KT 15/02 A3005 RMK A01 T01520018  RH  040%=      5-min Rain = 0
KTH1 301233Z 24008KT 15/02 A3005 RMK A01 T01520015  RH  039%=      5-min Rain = 0
KTH1 301234Z 24010KT 15/01 A3005 RMK A01 T01520014  RH  039%=      5-min Rain = 0
KTH1 301235Z 24008KT 15/01 A3005 RMK A01 T01530014  RH  039%=      5-min Rain = 0
KTH1 301236Z 24008KT 15/02 A3005 RMK A01 T01530020  RH  040%=      5-min Rain = 0
KTH1 301237Z 24008KT 15/02 A3005 RMK A01 T01530018  RH  040%=      5-min Rain = 0
KTH1 301238Z 24008KT 15/02 A3005 RMK A01 T01530020  RH  041%=      5-min Rain = 0
KTH1 301239Z 24009KT 15/02 A3005 RMK A01 T01530020  RH  041%=      5-min Rain = 0
KTH1 301240Z 24008KT 15/02 A3005 RMK A01 T01520023  RH  042%=      5-min Rain = 0
KTH1 301241Z 25008KT 15/03 A3005 RMK A01 T01520030  RH  044%=      5-min Rain = 0
KTH1 301242Z 25008KT 15/04 A3005 RMK A01 T01520035  RH  046%=      5-min Rain = 0
KTH1 301243Z 24009KT 15/04 A3005 RMK A01 T01530037  RH  046%=      5-min Rain = 0
KTH1 301244Z 25009KT 15/04 A3005 RMK A01 T01530036  RH  045%=      5-min Rain = 0
KTH1 301245Z 25008KT 15/04 A3005 RMK A01 T01530035  RH  045%=      5-min Rain = 0
KTH1 301246Z 25009KT 15/03 A3005 RMK A01 T01530032  RH  044%=      5-min Rain = 0
KTH1 301247Z 25008KT 15/03 A3005 RMK A01 T01530034  RH  045%=      5-min Rain = 0
KTH1 301248Z 25007KT 15/04 A3005 RMK A01 T01540042  RH  047%=      5-min Rain = 0
KTH1 301249Z 25008KT 15/04 A3005 RMK A01 T01530043  RH  048%=      5-min Rain = 0
KTH1 301250Z 25009KT 15/04 A3005 RMK A01 T01530040  RH  047%=      5-min Rain = 0
KTH1 301251Z 25008KT 15/04 A3005 RMK A01 T01530040  RH  047%=      5-min Rain = 0
KTH1 301252Z 25009KT 15/04 A3005 RMK A01 T01520039  RH  047%=      5-min Rain = 0
KTH1 301253Z 25009KT 15/04 A3005 RMK A01 T01520035  RH  046%=      5-min Rain = 0
KTH1 301254Z 24009KT 15/04 A3005 RMK A01 T01520038  RH  047%=      5-min Rain = 0
KTH1 301255Z 25009KT 15/03 A3005 RMK A01 T01510033  RH  045%=      5-min Rain = 0
KTH1 301256Z 25008KT 15/04 A3005 RMK A01 T01510038  RH  047%=      5-min Rain = 0
KTH1 301257Z 25008KT 15/04 A3005 RMK A01 T01520039  RH  047%=      5-min Rain = 0
KTH1 301258Z 25008KT 15/04 A3005 RMK A01 T01520036  RH  046%=      5-min Rain = 0
KTH1 301259Z 25008KT 15/04 A3005 RMK A01 T01520036  RH  046%=      5-min Rain = 0
KTH1 301300Z 25008KT 15/04 A3005 RMK A01 T01520040  RH  047%=      5-min Rain = 0
KTH1 301301Z 25008KT 15/04 A3005 RMK A01 T01510040  RH  047%=      5-min Rain = 0
KTH1 301302Z 25008KT 15/04 A3005 RMK A01 T01520042  RH  048%=      5-min Rain = 0
KTH1 301303Z 25008KT 15/04 A3005 RMK A01 T01520042  RH  048%=      5-min Rain = 0
KTH1 301304Z 25008KT 15/04 A3005 RMK A01 T01520040  RH  047%=      5-min Rain = 0
KTH1 301305Z 25009KT 15/04 A3005 RMK A01 T01530040  RH  047%=      5-min Rain = 0
KTH1 301306Z 25008KT 15/04 A3005 RMK A01 T01530040  RH  047%=      5-min Rain = 0
KTH1 301307Z 25008KT 15/05 A3005 RMK A01 T01540045  RH  048%=      5-min Rain = 0
KTH1 301308Z 25008KT 15/05 A3005 RMK A01 T01540048  RH  049%=      5-min Rain = 0
KTH1 301309Z 25008KT 15/05 A3005 RMK A01 T01540048  RH  049%=      5-min Rain = 0
KTH1 301310Z 25009KT 16/05 A3005 RMK A01 T01550049  RH  049%=      5-min Rain = 0
KTH1 301311Z 25009KT 16/05 A3005 RMK A01 T01550046  RH  048%=      5-min Rain = 0
KTH1 301312Z 25008KT 16/04 A3005 RMK A01 T01560044  RH  047%=      5-min Rain = 0
KTH1 301313Z 25008KT 16/05 A3005 RMK A01 T01560046  RH  048%=      5-min Rain = 0
KTH1 301314Z 25008KT 16/05 A3005 RMK A01 T01560047  RH  048%=      5-min Rain = 0
KTH1 301315Z 24008KT 16/04 A3005 RMK A01 T01560038  RH  045%=      5-min Rain = 0
KTH1 301316Z 24008KT 16/04 A3005 RMK A01 T01560041  RH  046%=      5-min Rain = 0
KTH1 301317Z 25008KT 16/04 A3006 RMK A01 T01560040  RH  046%=      5-min Rain = 0
KTH1 301318Z 24009KT 16/05 A3006 RMK A01 T01570045  RH  047%=      5-min Rain = 0
KTH1 301319Z 25009KT 16/04 A3006 RMK A01 T01570043  RH  047%=      5-min Rain = 0
KTH1 301320Z 25007KT 16/04 A3006 RMK A01 T01580044  RH  047%=      5-min Rain = 0
KTH1 301321Z 25009KT 16/05 A3006 RMK A01 T01580047  RH  047%=      5-min Rain = 0
KTH1 301322Z 25010KT 16/05 A3006 RMK A01 T01590045  RH  047%=      5-min Rain = 0
KTH1 301323Z 25008KT 16/04 A3006 RMK A01 T01600043  RH  046%=      5-min Rain = 0
KTH1 301324Z 25009KT 16/05 A3006 RMK A01 T01610046  RH  047%=      5-min Rain = 0
KTH1 301325Z 26009KT 16/05 A3006 RMK A01 T01610048  RH  047%=      5-min Rain = 0
KTH1 301326Z 25009KT 16/04 A3006 RMK A01 T01620043  RH  045%=      5-min Rain = 0
KTH1 301327Z 26008KT 16/05 A3006 RMK A01 T01620048  RH  047%=      5-min Rain = 0
KTH1 301328Z 25009KT 16/05 A3006 RMK A01 T01620053  RH  048%=      5-min Rain = 0
KTH1 301329Z 25007KT 16/05 A3006 RMK A01 T01630052  RH  048%=      5-min Rain = 0
KTH1 301330Z 25008KT 16/05 A3006 RMK A01 T01630050  RH  047%=      5-min Rain = 0
KTH1 301331Z 25008KT 16/05 A3006 RMK A01 T01640049  RH  046%=      5-min Rain = 0
KTH1 301332Z 25009KT 16/05 A3006 RMK A01 T01640052  RH  047%=      5-min Rain = 0
KTH1 301333Z 25009KT 16/04 A3006 RMK A01 T01640044  RH  045%=      5-min Rain = 0
KTH1 301334Z 25009KT 17/05 A3006 RMK A01 T01650046  RH  045%=      5-min Rain = 0
KTH1 301335Z 25011KT 17/05 A3006 RMK A01 T01650049  RH  046%=      5-min Rain = 0
KTH1 301336Z 25010KT 17/04 A3006 RMK A01 T01650044  RH  045%=      5-min Rain = 0
KTH1 301337Z 25010KT 17/05 A3006 RMK A01 T01660048  RH  045%=      5-min Rain = 0
KTH1 301338Z 25009KT 17/05 A3006 RMK A01 T01660046  RH  045%=      5-min Rain = 0
KTH1 301339Z 25010KT 17/05 A3006 RMK A01 T01670051  RH  046%=      5-min Rain = 0
KTH1 301340Z 25011KT 17/05 A3006 RMK A01 T01680047  RH  045%=      5-min Rain = 0
KTH1 301341Z 25011KT 17/05 A3006 RMK A01 T01690050  RH  045%=      5-min Rain = 0
KTH1 301342Z 25010KT 17/05 A3006 RMK A01 T01690051  RH  046%=      5-min Rain = 0
KTH1 301343Z 25010KT 17/05 A3006 RMK A01 T01700050  RH  045%=      5-min Rain = 0
KTH1 301344Z 25010KT 17/05 A3006 RMK A01 T01700048  RH  044%=      5-min Rain = 0
KTH1 301345Z 25009KT 17/05 A3006 RMK A01 T01700052  RH  046%=      5-min Rain = 0
KTH1 301346Z 25011KT 17/05 A3006 RMK A01 T01710050  RH  045%=      5-min Rain = 0
KTH1 301347Z 26010KT 17/04 A3006 RMK A01 T01710044  RH  043%=      5-min Rain = 0
KTH1 301348Z 25010KT 17/05 A3006 RMK A01 T01710053  RH  046%=      5-min Rain = 0
KTH1 301349Z 25011KT 17/05 A3006 RMK A01 T01720050  RH  044%=      5-min Rain = 0
KTH1 301350Z 26010KT 17/05 A3006 RMK A01 T01720051  RH  045%=      5-min Rain = 0
KTH1 301351Z 26010KT 17/05 A3006 RMK A01 T01730054  RH  046%=      5-min Rain = 0
KTH1 301352Z 26011KT 17/05 A3006 RMK A01 T01740054  RH  045%=      5-min Rain = 0
KTH1 301353Z 26010KT 17/06 A3006 RMK A01 T01740056  RH  046%=      5-min Rain = 0
KTH1 301354Z 26010KT 18/06 A3006 RMK A01 T01750057  RH  046%=      5-min Rain = 0
KTH1 301355Z 26011KT 18/06 A3006 RMK A01 T01760057  RH  046%=      5-min Rain = 0
KTH1 301356Z 26009KT 18/06 A3006 RMK A01 T01770063  RH  047%=      5-min Rain = 0
KTH1 301357Z 26010KT 18/07 A3006 RMK A01 T01780067  RH  048%=      5-min Rain = 0
KTH1 301358Z 26010KT 18/07 A3006 RMK A01 T01790067  RH  048%=      5-min Rain = 0
KTH1 301359Z 26010KT 18/07 A3007 RMK A01 T01800066  RH  047%=      5-min Rain = 0
KTH1 301400Z 26011KT 18/06 A3007 RMK A01 T01810058  RH  044%=      5-min Rain = 0
KTH1 301401Z 26011KT 18/06 A3007 RMK A01 T01810059  RH  045%=      5-min Rain = 0
KTH1 301402Z 26010KT 18/06 A3007 RMK A01 T01820062  RH  045%=      5-min Rain = 0
KTH1 301403Z 26011KT 18/06 A3007 RMK A01 T01820061  RH  045%=      5-min Rain = 0
KTH1 301404Z 26012KT 18/06 A3007 RMK A01 T01830060  RH  044%=      5-min Rain = 0
KTH1 301405Z 25011KT 18/06 A3007 RMK A01 T01840056  RH  043%=      5-min Rain = 0
KTH1 301406Z 26010KT 18/06 A3007 RMK A01 T01830060  RH  044%=      5-min Rain = 0
KTH1 301407Z 25011KT 18/06 A3007 RMK A01 T01840060  RH  044%=      5-min Rain = 0
KTH1 301408Z 25011KT 19/06 A3007 RMK A01 T01850057  RH  043%=      5-min Rain = 0
KTH1 301409Z 25011KT 19/05 A3007 RMK A01 T01850051  RH  041%=      5-min Rain = 0
KTH1 301410Z 25010KT 19/06 A3007 RMK A01 T01850057  RH  043%=      5-min Rain = 0
KTH1 301411Z 25010KT 19/06 A3007 RMK A01 T01850061  RH  044%=      5-min Rain = 0
KTH1 301412Z 25011KT 19/06 A3007 RMK A01 T01860055  RH  042%=      5-min Rain = 0
KTH1 301413Z 25011KT 19/05 A3007 RMK A01 T01860049  RH  040%=      5-min Rain = 0
KTH1 301414Z 25010KT 19/05 A3007 RMK A01 T01870053  RH  041%=      5-min Rain = 0
KTH1 301415Z 25009KT 19/06 A3007 RMK A01 T01870060  RH  043%=      5-min Rain = 0
KTH1 301416Z 25010KT 19/06 A3007 RMK A01 T01880057  RH  042%=      5-min Rain = 0
KTH1 301417Z 24010KT 19/05 A3007 RMK A01 T01880053  RH  041%=      5-min Rain = 0
KTH1 301418Z 24010KT 19/05 A3007 RMK A01 T01890050  RH  040%=      5-min Rain = 0
KTH1 301419Z 25010KT 19/06 A3007 RMK A01 T01890055  RH  041%=      5-min Rain = 0
KTH1 301420Z 24011KT 19/05 A3007 RMK A01 T01900052  RH  040%=      5-min Rain = 0
KTH1 301421Z 25010KT 19/05 A3007 RMK A01 T01900051  RH  040%=      5-min Rain = 0
KTH1 301422Z 24010KT 19/05 A3007 RMK A01 T01910051  RH  040%=      5-min Rain = 0
KTH1 301423Z 24010KT 19/05 A3007 RMK A01 T01910053  RH  040%=      5-min Rain = 0
KTH1 301424Z 24010KT 19/05 A3007 RMK A01 T01920052  RH  040%=      5-min Rain = 0
KTH1 301425Z 24010KT 19/05 A3007 RMK A01 T01920047  RH  038%=      5-min Rain = 0
KTH1 301426Z 24010KT 19/05 A3007 RMK A01 T01930048  RH  038%=      5-min Rain = 0
KTH1 301427Z 24010KT 19/05 A3007 RMK A01 T01930049  RH  039%=      5-min Rain = 0
KTH1 301428Z 25011KT 19/05 A3007 RMK A01 T01940050  RH  039%=      5-min Rain = 0
KTH1 301429Z 25011KT 20/05 A3007 RMK A01 T01950048  RH  038%=      5-min Rain = 0
KTH1 301430Z 25009KT 20/06 A3007 RMK A01 T01950055  RH  040%=      5-min Rain = 0
KTH1 301431Z 25009KT 20/06 A3007 RMK A01 T01960062  RH  042%=      5-min Rain = 0
KTH1 301432Z 24010KT 20/06 A3007 RMK A01 T01970060  RH  041%=      5-min Rain = 0
KTH1 301433Z 25010KT 20/06 A3007 RMK A01 T01980055  RH  039%=      5-min Rain = 0
KTH1 301434Z 25011KT 20/06 A3007 RMK A01 T01980055  RH  039%=      5-min Rain = 0
KTH1 301435Z 25009KT 20/06 A3007 RMK A01 T01990062  RH  041%=      5-min Rain = 0
KTH1 301436Z 25010KT 20/06 A3007 RMK A01 T02000064  RH  041%=      5-min Rain = 0
KTH1 301437Z 26010KT 20/05 A3007 RMK A01 T02010054  RH  038%=      5-min Rain = 0
KTH1 301438Z 25011KT 20/06 A3007 RMK A01 T02010058  RH  039%=      5-min Rain = 0
KTH1 301439Z 26011KT 20/06 A3007 RMK A01 T02020062  RH  040%=      5-min Rain = 0
KTH1 301440Z 26011KT 20/06 A3007 RMK A01 T02030062  RH  040%=      5-min Rain = 0
KTH1 301441Z 25011KT 20/06 A3007 RMK A01 T02040061  RH  039%=      5-min Rain = 0
KTH1 301442Z 25011KT 20/05 A3007 RMK A01 T02040054  RH  037%=      5-min Rain = 0
KTH1 301443Z 25011KT 21/05 A3007 RMK A01 T02050054  RH  037%=      5-min Rain = 0
KTH1 301444Z 25011KT 21/06 A3007 RMK A01 T02050063  RH  039%=      5-min Rain = 0
KTH1 301445Z 25011KT 21/06 A3007 RMK A01 T02060062  RH  039%=      5-min Rain = 0
KTH1 301446Z 26011KT 21/06 A3007 RMK A01 T02070064  RH  040%=      5-min Rain = 0
KTH1 301447Z 26012KT 21/06 A3007 RMK A01 T02070058  RH  038%=      5-min Rain = 0
KTH1 301448Z 26011KT 21/06 A3007 RMK A01 T02080063  RH  039%=      5-min Rain = 0
KTH1 301449Z 25012KT 21/06 A3007 RMK A01 T02080061  RH  038%=      5-min Rain = 0
KTH1 301450Z 25011KT 21/06 A3007 RMK A01 T02090057  RH  037%=      5-min Rain = 0
KTH1 301451Z 25011KT 21/05 A3007 RMK A01 T02090054  RH  036%=      5-min Rain = 0
KTH1 301452Z 26010KT 21/06 A3007 RMK A01 T02100064  RH  039%=      5-min Rain = 0
KTH1 301453Z 25011KT 21/06 A3007 RMK A01 T02110063  RH  038%=      5-min Rain = 0
KTH1 301454Z 25010KT 21/07 A3007 RMK A01 T02110071  RH  040%=      5-min Rain = 0
KTH1 301455Z 25010KT 21/07 A3007 RMK A01 T02120067  RH  039%=      5-min Rain = 0
KTH1 301456Z 26010KT 21/06 A3007 RMK A01 T02130062  RH  038%=      5-min Rain = 0
KTH1 301457Z 25012KT 21/07 A3007 RMK A01 T02130068  RH  039%=      5-min Rain = 0
KTH1 301458Z 25012KT 21/06 A3007 RMK A01 T02140062  RH  037%=      5-min Rain = 0
KTH1 301459Z 25011KT 22/06 A3007 RMK A01 T02150062  RH  037%=      5-min Rain = 0
KTH1 301500Z 25010KT 22/06 A3007 RMK A01 T02150061  RH  037%=      5-min Rain = 0
KTH1 301501Z 25011KT 22/06 A3007 RMK A01 T02150057  RH  036%=      5-min Rain = 0
KTH1 301502Z 25011KT 22/06 A3007 RMK A01 T02160060  RH  036%=      5-min Rain = 0
KTH1 301503Z 25011KT 22/07 A3007 RMK A01 T02160066  RH  038%=      5-min Rain = 0
KTH1 301504Z 25010KT 22/07 A3007 RMK A01 T02160067  RH  038%=      5-min Rain = 0
KTH1 301505Z 25010KT 22/06 A3007 RMK A01 T02170061  RH  036%=      5-min Rain = 0
KTH1 301506Z 25009KT 22/06 A3007 RMK A01 T02180064  RH  037%=      5-min Rain = 0
KTH1 301507Z 25010KT 22/07 A3007 RMK A01 T02190071  RH  038%=      5-min Rain = 0
KTH1 301508Z 26009KT 22/07 A3007 RMK A01 T02200071  RH  038%=      5-min Rain = 0
KTH1 301509Z 25009KT 22/06 A3007 RMK A01 T02210063  RH  036%=      5-min Rain = 0
KTH1 301510Z 25010KT 22/07 A3007 RMK A01 T02220068  RH  037%=      5-min Rain = 0
KTH1 301511Z 25011KT 22/06 A3007 RMK A01 T02220062  RH  035%=      5-min Rain = 0
KTH1 301512Z 25010KT 22/06 A3007 RMK A01 T02220055  RH  034%=      5-min Rain = 0
KTH1 301513Z 25010KT 22/07 A3008 RMK A01 T02220065  RH  036%=      5-min Rain = 0
KTH1 301514Z 25010KT 22/07 A3008 RMK A01 T02220072  RH  038%=      5-min Rain = 0
KTH1 301515Z 25011KT 22/07 A3008 RMK A01 T02230072  RH  038%=      5-min Rain = 0
KTH1 301516Z 26011KT 22/08 A3008 RMK A01 T02240079  RH  039%=      5-min Rain = 0
KTH1 301517Z 25011KT 23/07 A3008 RMK A01 T02260068  RH  036%=      5-min Rain = 0
KTH1 301518Z 25011KT 23/06 A3008 RMK A01 T02270063  RH  035%=      5-min Rain = 0
KTH1 301519Z 25010KT 23/06 A3008 RMK A01 T02270058  RH  033%=      5-min Rain = 0
KTH1 301520Z 25010KT 23/07 A3008 RMK A01 T02270066  RH  035%=      5-min Rain = 0
KTH1 301521Z 25011KT 23/08 A3008 RMK A01 T02280077  RH  038%=      5-min Rain = 0
KTH1 301522Z 25010KT 23/07 A3008 RMK A01 T02270070  RH  036%=      5-min Rain = 0
KTH1 301523Z 25010KT 23/07 A3008 RMK A01 T02280069  RH  036%=      5-min Rain = 0
KTH1 301524Z 25010KT 23/07 A3008 RMK A01 T02280074  RH  037%=      5-min Rain = 0
KTH1 301525Z 25009KT 23/07 A3008 RMK A01 T02290073  RH  037%=      5-min Rain = 0
KTH1 301526Z 25010KT 23/08 A3008 RMK A01 T02290075  RH  037%=      5-min Rain = 0
KTH1 301527Z 25011KT 23/08 A3008 RMK A01 T02300076  RH  037%=      5-min Rain = 0
KTH1 301528Z 25011KT 23/06 A3008 RMK A01 T02310058  RH  033%=      5-min Rain = 0
KTH1 301529Z 25010KT 23/07 A3008 RMK A01 T02310065  RH  034%=      5-min Rain = 0
KTH1 301530Z 25009KT 23/07 A3008 RMK A01 T02320067  RH  034%=      5-min Rain = 0
KTH1 301531Z 24008KT 23/07 A3008 RMK A01 T02330067  RH  034%=      5-min Rain = 0
KTH1 301532Z 24008KT 23/06 A3008 RMK A01 T02330064  RH  034%=      5-min Rain = 0
KTH1 301533Z 24010KT 23/06 A3008 RMK A01 T02330058  RH  032%=      5-min Rain = 0
KTH1 301534Z 25009KT 23/06 A3008 RMK A01 T02340061  RH  033%=      5-min Rain = 0
KTH1 301535Z 25010KT 23/06 A3008 RMK A01 T02340060  RH  032%=      5-min Rain = 0
KTH1 301536Z 25010KT 24/06 A3008 RMK A01 T02350063  RH  033%=      5-min Rain = 0
KTH1 301537Z 24009KT 24/06 A3008 RMK A01 T02350058  RH  032%=      5-min Rain = 0
KTH1 301538Z 24010KT 24/06 A3008 RMK A01 T02360063  RH  033%=      5-min Rain = 0
KTH1 301539Z 24009KT 24/06 A3008 RMK A01 T02360063  RH  033%=      5-min Rain = 0
KTH1 301540Z 24010KT 24/06 A3008 RMK A01 T02370059  RH  032%=      5-min Rain = 0
KTH1 301541Z 24008KT 24/06 A3008 RMK A01 T02370058  RH  031%=      5-min Rain = 0
KTH1 301542Z 24008KT 24/06 A3008 RMK A01 T02380057  RH  031%=      5-min Rain = 0
KTH1 301543Z 24008KT 24/05 A3008 RMK A01 T02390052  RH  030%=      5-min Rain = 0
KTH1 301544Z 24008KT 24/06 A3008 RMK A01 T02390056  RH  031%=      5-min Rain = 0
KTH1 301545Z 24008KT 24/05 A3008 RMK A01 T02390054  RH  030%=      5-min Rain = 0
KTH1 301546Z 24008KT 24/05 A3008 RMK A01 T02400048  RH  029%=      5-min Rain = 0
KTH1 301547Z 25009KT 24/05 A3008 RMK A01 T02410052  RH  029%=      5-min Rain = 0
KTH1 301548Z 25010KT 24/07 A3008 RMK A01 T02410065  RH  032%=      5-min Rain = 0
KTH1 301549Z 24010KT 24/07 A3008 RMK A01 T02410069  RH  033%=      5-min Rain = 0
KTH1 301550Z 25008KT 24/07 A3008 RMK A01 T02420070  RH  033%=      5-min Rain = 0
KTH1 301551Z 24009KT 24/07 A3008 RMK A01 T02420070  RH  033%=      5-min Rain = 0
KTH1 301552Z 24010KT 24/06 A3008 RMK A01 T02430059  RH  031%=      5-min Rain = 0
KTH1 301553Z 24010KT 24/06 A3008 RMK A01 T02440063  RH  031%=      5-min Rain = 0
KTH1 301554Z 25010KT 24/05 A3008 RMK A01 T02440053  RH  029%=      5-min Rain = 0
KTH1 301555Z 24011KT 25/06 A3008 RMK A01 T02450063  RH  031%=      5-min Rain = 0
KTH1 301556Z 25011KT 25/06 A3008 RMK A01 T02460059  RH  030%=      5-min Rain = 0
KTH1 301557Z 24011KT 25/06 A3008 RMK A01 T02460063  RH  031%=      5-min Rain = 0
KTH1 301558Z 24010KT 25/05 A3008 RMK A01 T02470048  RH  028%=      5-min Rain = 0
KTH1 301559Z 25010KT 25/06 A3008 RMK A01 T02470064  RH  031%=      5-min Rain = 0
KTH1 301600Z 24011KT 25/07 A3008 RMK A01 T02480070  RH  032%=      5-min Rain = 0
KTH1 301601Z 24011KT 25/06 A3008 RMK A01 T02480056  RH  029%=      5-min Rain = 0
KTH1 301602Z 25011KT 25/06 A3008 RMK A01 T02480061  RH  030%=      5-min Rain = 0
KTH1 301603Z 24012KT 25/06 A3007 RMK A01 T02490061  RH  030%=      5-min Rain = 0
KTH1 301604Z 25010KT 25/06 A3007 RMK A01 T02490058  RH  029%=      5-min Rain = 0
KTH1 301605Z 25009KT 25/05 A3007 RMK A01 T02500051  RH  028%=      5-min Rain = 0
KTH1 301606Z 25011KT 25/06 A3007 RMK A01 T02500063  RH  030%=      5-min Rain = 0
KTH1 301607Z 26011KT 25/07 A3007 RMK A01 T02510071  RH  032%=      5-min Rain = 0
KTH1 301608Z 23010KT 25/07 A3007 RMK A01 T02520074  RH  032%=      5-min Rain = 0
KTH1 301609Z 24011KT 25/06 A3007 RMK A01 T02520057  RH  028%=      5-min Rain = 0
KTH1 301610Z 24011KT 25/05 A3007 RMK A01 T02520050  RH  027%=      5-min Rain = 0
KTH1 301611Z 26010KT 25/06 A3007 RMK A01 T02530060  RH  029%=      5-min Rain = 0
KTH1 301612Z 25009KT 25/08 A3008 RMK A01 T02540081  RH  033%=      5-min Rain = 0
KTH1 301613Z 24009KT 26/07 A3008 RMK A01 T02550072  RH  031%=      5-min Rain = 0
KTH1 301614Z 25011KT 26/05 A3008 RMK A01 T02550051  RH  027%=      5-min Rain = 0
KTH1 301615Z 24011KT 26/06 A3008 RMK A01 T02550056  RH  028%=      5-min Rain = 0
KTH1 301616Z 24010KT 26/05 A3008 RMK A01 T02550048  RH  026%=      5-min Rain = 0
KTH1 301617Z 24010KT 26/05 A3007 RMK A01 T02560048  RH  026%=      5-min Rain = 0
KTH1 301618Z 24009KT 26/05 A3007 RMK A01 T02560048  RH  026%=      5-min Rain = 0
KTH1 301619Z 25010KT 26/06 A3008 RMK A01 T02570060  RH  028%=      5-min Rain = 0
KTH1 301620Z 24010KT 26/06 A3008 RMK A01 T02580060  RH  028%=      5-min Rain = 0
KTH1 301621Z 24009KT 26/05 A3007 RMK A01 T02580051  RH  027%=      5-min Rain = 0
KTH1 301622Z 24008KT 26/06 A3008 RMK A01 T02590059  RH  028%=      5-min Rain = 0
KTH1 301623Z 24009KT 26/06 A3008 RMK A01 T02590063  RH  028%=      5-min Rain = 0
KTH1 301624Z 23010KT 26/05 A3008 RMK A01 T02600054  RH  027%=      5-min Rain = 0
KTH1 301625Z 24008KT 26/05 A3008 RMK A01 T02610054  RH  027%=      5-min Rain = 0
KTH1 301626Z 25009KT 26/06 A3008 RMK A01 T02610060  RH  028%=      5-min Rain = 0
KTH1 301627Z 24009KT 26/07 A3008 RMK A01 T02610069  RH  030%=      5-min Rain = 0
KTH1 301628Z 23008KT 26/06 A3008 RMK A01 T02610063  RH  028%=      5-min Rain = 0
KTH1 301629Z 24006KT 26/06 A3008 RMK A01 T02610057  RH  027%=      5-min Rain = 0
KTH1 301630Z 24007KT 26/07 A3008 RMK A01 T02630067  RH  029%=      5-min Rain = 0
KTH1 301631Z 24007KT 26/07 A3008 RMK A01 T02640065  RH  028%=      5-min Rain = 0
KTH1 301632Z 25009KT 26/06 A3008 RMK A01 T02640058  RH  027%=      5-min Rain = 0
KTH1 301633Z 25011KT 27/08 A3008 RMK A01 T02650081  RH  031%=      5-min Rain = 0
KTH1 301634Z 24009KT 26/08 A3008 RMK A01 T02640084  RH  032%=      5-min Rain = 0
KTH1 301635Z 24009KT 26/07 A3008 RMK A01 T02640074  RH  030%=      5-min Rain = 0
KTH1 301636Z 23008KT 26/07 A3008 RMK A01 T02640067  RH  028%=      5-min Rain = 0
KTH1 301637Z 24008KT 27/06 A3008 RMK A01 T02650058  RH  027%=      5-min Rain = 0
KTH1 301638Z 22006KT 27/06 A3008 RMK A01 T02660060  RH  027%=      5-min Rain = 0
KTH1 301639Z 24007KT 27/07 A3008 RMK A01 T02670069  RH  028%=      5-min Rain = 0
KTH1 301640Z 24007KT 27/06 A3008 RMK A01 T02670059  RH  026%=      5-min Rain = 0
KTH1 301641Z 24010KT 27/05 A3008 RMK A01 T02680054  RH  026%=      5-min Rain = 0
KTH1 301642Z 24008KT 27/06 A3008 RMK A01 T02670057  RH  026%=      5-min Rain = 0
KTH1 301643Z 23009KT 27/05 A3008 RMK A01 T02670053  RH  025%=      5-min Rain = 0
KTH1 301644Z 24008KT 27/05 A3008 RMK A01 T02680048  RH  024%=      5-min Rain = 0
KTH1 301645Z 24008KT 27/06 A3008 RMK A01 T02680056  RH  026%=      5-min Rain = 0
KTH1 301646Z 23009KT 27/05 A3008 RMK A01 T02680054  RH  025%=      5-min Rain = 0
KTH1 301647Z 24011KT 27/05 A3008 RMK A01 T02690051  RH  025%=      5-min Rain = 0
KTH1 301648Z 24010KT 27/05 A3008 RMK A01 T02690054  RH  025%=      5-min Rain = 0
KTH1 301649Z 25010KT 27/05 A3008 RMK A01 T02690054  RH  025%=      5-min Rain = 0
KTH1 301650Z 24011KT 27/06 A3008 RMK A01 T02680063  RH  027%=      5-min Rain = 0
KTH1 301651Z 25012KT 27/07 A3008 RMK A01 T02680065  RH  027%=      5-min Rain = 0
KTH1 301652Z 25011KT 27/06 A3008 RMK A01 T02680060  RH  026%=      5-min Rain = 0
KTH1 301653Z 25010KT 27/08 A3008 RMK A01 T02680075  RH  029%=      5-min Rain = 0
KTH1 301654Z 23009KT 27/07 A3008 RMK A01 T02680071  RH  029%=      5-min Rain = 0
KTH1 301655Z 23008KT 27/06 A3008 RMK A01 T02700061  RH  027%=      5-min Rain = 0
KTH1 301656Z 24008KT 27/06 A3008 RMK A01 T02710060  RH  026%=      5-min Rain = 0
KTH1 301657Z 23007KT 27/06 A3008 RMK A01 T02720059  RH  026%=      5-min Rain = 0
KTH1 301658Z 24011KT 27/06 A3008 RMK A01 T02740063  RH  026%=      5-min Rain = 0
KTH1 301659Z 24009KT 27/06 A3008 RMK A01 T02740058  RH  025%=      5-min Rain = 0
KTH1 301700Z 24010KT 27/06 A3008 RMK A01 T02730057  RH  025%=      5-min Rain = 0
KTH1 301701Z 24009KT 27/06 A3008 RMK A01 T02730058  RH  025%=      5-min Rain = 0
KTH1 301702Z 23009KT 27/06 A3008 RMK A01 T02730061  RH  026%=      5-min Rain = 0
KTH1 301703Z 24008KT 27/05 A3008 RMK A01 T02730054  RH  025%=      5-min Rain = 0
KTH1 301704Z 24010KT 27/06 A3007 RMK A01 T02730058  RH  025%=      5-min Rain = 0
KTH1 301705Z 23009KT 27/07 A3007 RMK A01 T02720072  RH  028%=      5-min Rain = 0
KTH1 301706Z 23007KT 27/07 A3007 RMK A01 T02730066  RH  027%=      5-min Rain = 0
KTH1 301707Z 24008KT 28/07 A3007 RMK A01 T02750072  RH  028%=      5-min Rain = 0
KTH1 301708Z 23008KT 28/06 A3007 RMK A01 T02760059  RH  025%=      5-min Rain = 0
KTH1 301709Z 24007KT 28/06 A3007 RMK A01 T02770063  RH  026%=      5-min Rain = 0
KTH1 301710Z 24007KT 28/06 A3007 RMK A01 T02780059  RH  025%=      5-min Rain = 0
KTH1 301711Z 23006KT 28/06 A3007 RMK A01 T02780063  RH  026%=      5-min Rain = 0
KTH1 301712Z 24007KT 28/07 A3007 RMK A01 T02780065  RH  026%=      5-min Rain = 0
KTH1 301713Z 23007KT 28/06 A3007 RMK A01 T02790064  RH  026%=      5-min Rain = 0
KTH1 301714Z 24008KT 28/08 A3007 RMK A01 T02790076  RH  028%=      5-min Rain = 0
KTH1 301715Z 24010KT 28/06 A3007 RMK A01 T02800062  RH  025%=      5-min Rain = 0
KTH1 301716Z 25009KT 28/06 A3007 RMK A01 T02790055  RH  024%=      5-min Rain = 0
KTH1 301717Z 25006KT 28/08 A3007 RMK A01 T02790080  RH  029%=      5-min Rain = 0
KTH1 301718Z 23007KT 28/08 A3007 RMK A01 T02790082  RH  029%=      5-min Rain = 0
KTH1 301719Z 24009KT 28/06 A3007 RMK A01 T02790064  RH  026%=      5-min Rain = 0
KTH1 301720Z 24009G14KT 28/06 A3007 RMK A01 T02790062  RH  025%=      5-min Rain = 0
KTH1 301721Z 24007KT 28/07 A3007 RMK A01 T02780068  RH  026%=      5-min Rain = 0
KTH1 301722Z 24007KT 28/07 A3007 RMK A01 T02780074  RH  028%=      5-min Rain = 0
KTH1 301723Z 25007KT 28/07 A3007 RMK A01 T02790066  RH  026%=      5-min Rain = 0
KTH1 301724Z 25009KT 28/08 A3007 RMK A01 T02790080  RH  028%=      5-min Rain = 0
KTH1 301725Z 24008KT 28/07 A3007 RMK A01 T02790074  RH  027%=      5-min Rain = 0
KTH1 301726Z 24009KT 28/07 A3007 RMK A01 T02800065  RH  026%=      5-min Rain = 0
KTH1 301727Z 24009KT 28/07 A3007 RMK A01 T02810065  RH  026%=      5-min Rain = 0
KTH1 301728Z 24007KT 28/07 A3007 RMK A01 T02810068  RH  026%=      5-min Rain = 0
KTH1 301729Z 24007KT 28/07 A3007 RMK A01 T02810066  RH  026%=      5-min Rain = 0
KTH1 301730Z 24006KT 28/07 A3007 RMK A01 T02810070  RH  026%=      5-min Rain = 0
KTH1 301731Z 23005KT 28/09 A3007 RMK A01 T02820086  RH  029%=      5-min Rain = 0
KTH1 301732Z 24007KT 28/08 A3007 RMK A01 T02820075  RH  027%=      5-min Rain = 0
KTH1 301733Z 24007KT 28/07 A3007 RMK A01 T02820070  RH  026%=      5-min Rain = 0
KTH1 301734Z 23006KT 28/06 A3007 RMK A01 T02820062  RH  025%=      5-min Rain = 0
KTH1 301735Z 23008KT 28/07 A3007 RMK A01 T02830069  RH  026%=      5-min Rain = 0
KTH1 301736Z 24008KT 28/06 A3007 RMK A01 T02840059  RH  024%=      5-min Rain = 0
KTH1 301737Z 24009KT 28/06 A3007 RMK A01 T02840061  RH  024%=      5-min Rain = 0
KTH1 301738Z 24010KT 28/07 A3007 RMK A01 T02840066  RH  025%=      5-min Rain = 0
KTH1 301739Z 24009KT 28/06 A3007 RMK A01 T02840061  RH  024%=      5-min Rain = 0
KTH1 301740Z 23006KT 28/06 A3007 RMK A01 T02840061  RH  024%=      5-min Rain = 0
KTH1 301741Z 24007KT 29/07 A3007 RMK A01 T02850068  RH  025%=      5-min Rain = 0
KTH1 301742Z 25006KT 29/06 A3007 RMK A01 T02860062  RH  024%=      5-min Rain = 0
KTH1 301743Z 24005KT 29/08 A3007 RMK A01 T02860079  RH  027%=      5-min Rain = 0
KTH1 301744Z 23005KT 29/08 A3007 RMK A01 T02860075  RH  026%=      5-min Rain = 0
KTH1 301745Z 23006KT 29/07 A3007 RMK A01 T02880067  RH  025%=      5-min Rain = 0
KTH1 301746Z 23006KT 29/08 A3007 RMK A01 T02890078  RH  027%=      5-min Rain = 0
KTH1 301747Z 25008KT 29/08 A3007 RMK A01 T02910076  RH  026%=      5-min Rain = 0
KTH1 301748Z 24008KT 29/07 A3007 RMK A01 T02920072  RH  025%=      5-min Rain = 0
KTH1 301749Z 25009KT 29/07 A3006 RMK A01 T02900065  RH  024%=      5-min Rain = 0
KTH1 301750Z 25010KT 29/07 A3007 RMK A01 T02890070  RH  025%=      5-min Rain = 0
KTH1 301751Z 25010KT 29/08 A3006 RMK A01 T02880075  RH  026%=      5-min Rain = 0
KTH1 301752Z 24007KT 29/07 A3006 RMK A01 T02880066  RH  025%=      5-min Rain = 0
KTH1 301753Z 23007KT 29/07 A3006 RMK A01 T02880068  RH  025%=      5-min Rain = 0
KTH1 301754Z 22008KT 29/06 A3006 RMK A01 T02890061  RH  024%=      5-min Rain = 0
KTH1 301755Z 23006KT 29/06 A3006 RMK A01 T02910060  RH  023%=      5-min Rain = 0
KTH1 301756Z 22006KT 29/06 A3006 RMK A01 T02920062  RH  023%=      5-min Rain = 0
KTH1 301757Z 24007KT 29/07 A3006 RMK A01 T02930074  RH  025%=      5-min Rain = 0
KTH1 301758Z 24009KT 29/07 A3006 RMK A01 T02940069  RH  024%=      5-min Rain = 0
KTH1 301759Z 26008KT 29/07 A3006 RMK A01 T02940065  RH  024%=      5-min Rain = 0
KTH1 301800Z 26008KT 29/09 A3006 RMK A01 T02940089  RH  028%=      5-min Rain = 0
KTH1 301801Z 26009KT 29/10 A3006 RMK A01 T02940099  RH  030%=      5-min Rain = 0
KTH1 301802Z 26008KT 29/09 A3006 RMK A01 T02940088  RH  028%=      5-min Rain = 0
KTH1 301803Z 26006KT 29/10 A3006 RMK A01 T02940104  RH  031%=      5-min Rain = 0
KTH1 301804Z 25006KT 30/09 A3006 RMK A01 T02950086  RH  027%=      5-min Rain = 0
KTH1 301805Z 24006KT 30/08 A3006 RMK A01 T02960082  RH  026%=      5-min Rain = 0
KTH1 301806Z 22005KT 30/08 A3006 RMK A01 T02950075  RH  025%=      5-min Rain = 0
KTH1 301807Z 24006KT 30/07 A3006 RMK A01 T02950072  RH  025%=      5-min Rain = 0
KTH1 301808Z 22004KT 30/07 A3006 RMK A01 T02970068  RH  024%=      5-min Rain = 0
KTH1 301809Z 24005KT 30/07 A3006 RMK A01 T02980070  RH  024%=      5-min Rain = 0
KTH1 301810Z 22006KT 30/07 A3006 RMK A01 T03000072  RH  024%=      5-min Rain = 0
KTH1 301811Z 25006KT 30/08 A3006 RMK A01 T03010076  RH  024%=      5-min Rain = 0
KTH1 301812Z 24007KT 30/07 A3006 RMK A01 T03020065  RH  023%=      5-min Rain = 0
KTH1 301813Z 23006KT 30/08 A3006 RMK A01 T03010075  RH  024%=      5-min Rain = 0
KTH1 301814Z 24007KT 30/07 A3006 RMK A01 T03010071  RH  024%=      5-min Rain = 0
KTH1 301815Z 24006KT 30/08 A3006 RMK A01 T03010081  RH  025%=      5-min Rain = 0
KTH1 301816Z 23008KT 30/06 A3006 RMK A01 T03020064  RH  022%=      5-min Rain = 0
KTH1 301817Z 23007KT 30/06 A3006 RMK A01 T03020063  RH  022%=      5-min Rain = 0
KTH1 301818Z 23006KT 30/06 A3006 RMK A01 T03020064  RH  022%=      5-min Rain = 0
KTH1 301819Z 23006KT 30/06 A3006 RMK A01 T03020063  RH  022%=      5-min Rain = 0
KTH1 301820Z 25007KT 30/07 A3006 RMK A01 T03020068  RH  023%=      5-min Rain = 0
KTH1 301821Z 25006KT 30/06 A3006 RMK A01 T03030063  RH  022%=      5-min Rain = 0
KTH1 301822Z 26008KT 30/08 A3006 RMK A01 T03020083  RH  025%=      5-min Rain = 0
KTH1 301823Z 25008KT 30/09 A3005 RMK A01 T03010090  RH  027%=      5-min Rain = 0
KTH1 301824Z 24006KT 30/09 A3006 RMK A01 T03010086  RH  026%=      5-min Rain = 0
KTH1 301825Z 24006KT 30/08 A3006 RMK A01 T03010079  RH  025%=      5-min Rain = 0
KTH1 301826Z 24007KT 30/06 A3005 RMK A01 T03020063  RH  022%=      5-min Rain = 0
KTH1 301827Z 25004KT 30/07 A3005 RMK A01 T03020074  RH  024%=      5-min Rain = 0
KTH1 301828Z 25004KT 30/07 A3005 RMK A01 T03030071  RH  023%=      5-min Rain = 0
KTH1 301829Z 21004KT 30/07 A3005 RMK A01 T03030074  RH  024%=      5-min Rain = 0
KTH1 301830Z 23005KT 31/08 A3005 RMK A01 T03050077  RH  024%=      5-min Rain = 0
KTH1 301831Z 24006KT 31/08 A3005 RMK A01 T03050077  RH  024%=      5-min Rain = 0
KTH1 301832Z 25007KT 31/07 A3005 RMK A01 T03050069  RH  023%=      5-min Rain = 0
KTH1 301833Z 24007KT 30/08 A3005 RMK A01 T03040077  RH  024%=      5-min Rain = 0
KTH1 301834Z 21006KT 30/08 A3005 RMK A01 T03040081  RH  025%=      5-min Rain = 0
KTH1 301835Z 23004KT 31/07 A3005 RMK A01 T03050070  RH  023%=      5-min Rain = 0
KTH1 301836Z 22005KT 31/07 A3005 RMK A01 T03060069  RH  023%=      5-min Rain = 0
KTH1 301837Z 24009KT 31/08 A3005 RMK A01 T03070077  RH  024%=      5-min Rain = 0
KTH1 301838Z 25008KT 31/07 A3005 RMK A01 T03070065  RH  022%=      5-min Rain = 0
KTH1 301839Z 26007KT 31/07 A3005 RMK A01 T03050073  RH  023%=      5-min Rain = 0
KTH1 301840Z 26006KT 31/11 A3005 RMK A01 T03050108  RH  030%=      5-min Rain = 0
KTH1 301841Z 22005KT 31/09 A3005 RMK A01 T03070088  RH  026%=      5-min Rain = 0
KTH1 301842Z 21005KT 31/08 A3005 RMK A01 T03080080  RH  024%=      5-min Rain = 0
KTH1 301843Z 21006KT 31/07 A3005 RMK A01 T03090072  RH  023%=      5-min Rain = 0
KTH1 301844Z 21005KT 31/09 A3005 RMK A01 T03100090  RH  026%=      5-min Rain = 0
KTH1 301845Z 20004KT 31/09 A3005 RMK A01 T03110087  RH  025%=      5-min Rain = 0
KTH1 301846Z 20008KT 31/08 A3005 RMK A01 T03140079  RH  023%=      5-min Rain = 0
KTH1 301847Z 21008KT 32/07 A3005 RMK A01 T03150070  RH  022%=      5-min Rain = 0
KTH1 301848Z 21008KT 32/07 A3005 RMK A01 T03150067  RH  021%=      5-min Rain = 0
KTH1 301849Z 20007KT 32/06 A3005 RMK A01 T03150056  RH  020%=      5-min Rain = 0
KTH1 301850Z 20006KT 31/07 A3005 RMK A01 T03140068  RH  022%=      5-min Rain = 0
KTH1 301851Z 21008KT 31/06 A3005 RMK A01 T03140064  RH  021%=      5-min Rain = 0
KTH1 301852Z 22005KT 31/06 A3005 RMK A01 T03140062  RH  021%=      5-min Rain = 0
KTH1 301853Z 21006KT 31/07 A3004 RMK A01 T03140066  RH  021%=      5-min Rain = 0
KTH1 301854Z 20004KT 31/06 A3004 RMK A01 T03140063  RH  021%=      5-min Rain = 0
KTH1 301855Z 19003KT 31/08 A3004 RMK A01 T03140079  RH  023%=      5-min Rain = 0
KTH1 301856Z 25005KT 32/08 A3004 RMK A01 T03160084  RH  024%=      5-min Rain = 0
KTH1 301857Z 25010KT 32/09 A3004 RMK A01 T03170091  RH  025%=      5-min Rain = 0
KTH1 301858Z 25009KT 32/09 A3004 RMK A01 T03150094  RH  026%=      5-min Rain = 0
KTH1 301859Z 24007KT 31/08 A3004 RMK A01 T03110076  RH  023%=      5-min Rain = 0
KTH1 301900Z 24007KT 31/09 A3004 RMK A01 T03100089  RH  025%=      5-min Rain = 0
KTH1 301901Z 23005KT 31/08 A3004 RMK A01 T03090084  RH  025%=      5-min Rain = 0
KTH1 301902Z 22005KT 31/10 A3004 RMK A01 T03070095  RH  027%=      5-min Rain = 0
KTH1 301903Z 20006KT 31/08 A3004 RMK A01 T03090078  RH  024%=      5-min Rain = 0
KTH1 301904Z 19005KT 31/08 A3004 RMK A01 T03130077  RH  023%=      5-min Rain = 0
KTH1 301905Z 24005G11KT 32/08 A3004 RMK A01 T03150078  RH  023%=      5-min Rain = 0
KTH1 301906Z 24009KT 32/07 A3004 RMK A01 T03160067  RH  021%=      5-min Rain = 0
KTH1 301907Z 24007KT 31/07 A3004 RMK A01 T03130067  RH  021%=      5-min Rain = 0
KTH1 301908Z 25006KT 31/07 A3004 RMK A01 T03110071  RH  022%=      5-min Rain = 0
KTH1 301909Z 24008KT 31/09 A3004 RMK A01 T03110086  RH  025%=      5-min Rain = 0
KTH1 301910Z 24005KT 31/08 A3004 RMK A01 T03100080  RH  024%=      5-min Rain = 0
KTH1 301911Z 24007KT 31/07 A3004 RMK A01 T03100065  RH  022%=      5-min Rain = 0
KTH1 301912Z 24007KT 31/06 A3004 RMK A01 T03110063  RH  021%=      5-min Rain = 0
KTH1 301913Z 24008KT 31/06 A3004 RMK A01 T03110057  RH  020%=      5-min Rain = 0
KTH1 301914Z 24009KT 31/07 A3004 RMK A01 T03110067  RH  022%=      5-min Rain = 0
KTH1 301915Z 24009KT 31/06 A3004 RMK A01 T03110060  RH  021%=      5-min Rain = 0
KTH1 301916Z 24007KT 31/05 A3004 RMK A01 T03110050  RH  019%=      5-min Rain = 0
KTH1 301917Z 24008KT 31/06 A3004 RMK A01 T03100060  RH  021%=      5-min Rain = 0
KTH1 301918Z 24008KT 31/06 A3004 RMK A01 T03100062  RH  021%=      5-min Rain = 0
KTH1 301919Z 24008KT 31/07 A3004 RMK A01 T03100069  RH  022%=      5-min Rain = 0
KTH1 301920Z 25008KT 31/07 A3004 RMK A01 T03090070  RH  022%=      5-min Rain = 0
KTH1 301921Z 24005KT 31/06 A3004 RMK A01 T03090059  RH  021%=      5-min Rain = 0
KTH1 301922Z 24004KT 31/08 A3004 RMK A01 T03090078  RH  024%=      5-min Rain = 0
KTH1 301923Z 23005KT 31/07 A3004 RMK A01 T03090072  RH  023%=      5-min Rain = 0
KTH1 301924Z 21006KT 31/07 A3003 RMK A01 T03110072  RH  023%=      5-min Rain = 0
KTH1 301925Z 20006KT 31/06 A3003 RMK A01 T03130062  RH  021%=      5-min Rain = 0
KTH1 301926Z 18007KT 32/07 A3003 RMK A01 T03160067  RH  021%=      5-min Rain = 0
KTH1 301927Z 18007G12KT 32/05 A3003 RMK A01 T03170051  RH  019%=      5-min Rain = 0
KTH1 301928Z 19007KT 32/06 A3003 RMK A01 T03180064  RH  020%=      5-min Rain = 0
KTH1 301929Z 19007G12KT 32/07 A3003 RMK A01 T03190066  RH  021%=      5-min Rain = 0
KTH1 301930Z 19009KT 32/06 A3003 RMK A01 T03200055  RH  019%=      5-min Rain = 0
KTH1 301931Z 18008KT 32/06 A3003 RMK A01 T03200058  RH  019%=      5-min Rain = 0
KTH1 301932Z 17008KT 32/06 A3003 RMK A01 T03200064  RH  020%=      5-min Rain = 0
KTH1 301933Z 19005KT 32/05 A3003 RMK A01 T03200050  RH  018%=      5-min Rain = 0
KTH1 301934Z 21004KT 32/08 A3003 RMK A01 T03200076  RH  022%=      5-min Rain = 0
KTH1 301935Z 21005KT 32/07 A3003 RMK A01 T03220069  RH  021%=      5-min Rain = 0
KTH1 301936Z 19006KT 32/07 A3003 RMK A01 T03230074  RH  021%=      5-min Rain = 0
KTH1 301937Z 18006KT 32/07 A3003 RMK A01 T03240070  RH  021%=      5-min Rain = 0
KTH1 301938Z 18007KT 32/07 A3003 RMK A01 T03240071  RH  021%=      5-min Rain = 0
KTH1 301939Z 17005KT 32/06 A3003 RMK A01 T03240059  RH  019%=      5-min Rain = 0
KTH1 301940Z 17003KT 32/07 A3003 RMK A01 T03230073  RH  021%=      5-min Rain = 0
KTH1 301941Z 19002KT 32/09 A3003 RMK A01 T03240087  RH  023%=      5-min Rain = 0
KTH1 301942Z 17003KT 33/07 A3003 RMK A01 T03260069  RH  020%=      5-min Rain = 0
KTH1 301943Z 19002KT 33/08 A3003 RMK A01 T03260082  RH  022%=      5-min Rain = 0
KTH1 301944Z 25003KT 33/07 A3003 RMK A01 T03260067  RH  020%=      5-min Rain = 0
KTH1 301945Z 25007KT 33/07 A3003 RMK A01 T03260070  RH  020%=      5-min Rain = 0
KTH1 301946Z 24006KT 32/07 A3003 RMK A01 T03230074  RH  021%=      5-min Rain = 0
KTH1 301947Z 23005KT 32/07 A3003 RMK A01 T03200070  RH  021%=      5-min Rain = 0
KTH1 301948Z 25004KT 32/05 A3003 RMK A01 T03190051  RH  019%=      5-min Rain = 0
KTH1 301949Z 23006KT 32/07 A3003 RMK A01 T03180070  RH  021%=      5-min Rain = 0
KTH1 301950Z 22008KT 32/07 A3003 RMK A01 T03170067  RH  021%=      5-min Rain = 0
KTH1 301951Z 22007KT 32/05 A3002 RMK A01 T03170049  RH  019%=      5-min Rain = 0
KTH1 301952Z 22008KT 32/05 A3002 RMK A01 T03180049  RH  018%=      5-min Rain = 0
KTH1 301953Z 24007KT 32/06 A3002 RMK A01 T03180055  RH  019%=      5-min Rain = 0
KTH1 301954Z 22006KT 32/06 A3002 RMK A01 T03180061  RH  020%=      5-min Rain = 0
KTH1 301955Z 21006KT 32/07 A3002 RMK A01 T03190071  RH  021%=      5-min Rain = 0
KTH1 301956Z 22005KT 32/06 A3002 RMK A01 T03210056  RH  019%=      5-min Rain = 0
KTH1 301957Z 20006KT 32/07 A3002 RMK A01 T03220068  RH  021%=      5-min Rain = 0
KTH1 301958Z 21005KT 32/06 A3002 RMK A01 T03230057  RH  019%=      5-min Rain = 0
KTH1 301959Z 22003KT 32/07 A3002 RMK A01 T03230072  RH  021%=      5-min Rain = 0
KTH1 302000Z 25004KT 32/05 A3002 RMK A01 T03240049  RH  018%=      5-min Rain = 0
KTH1 302001Z 21003KT 32/06 A3002 RMK A01 T03240061  RH  019%=      5-min Rain = 0
KTH1 302002Z 20004KT 32/07 A3002 RMK A01 T03240065  RH  020%=      5-min Rain = 0
KTH1 302003Z 19007KT 33/07 A3002 RMK A01 T03250070  RH  020%=      5-min Rain = 0
KTH1 302004Z 19006KT 33/06 A3002 RMK A01 T03260061  RH  019%=      5-min Rain = 0
KTH1 302005Z 23007KT 33/06 A3002 RMK A01 T03260061  RH  019%=      5-min Rain = 0
KTH1 302006Z 20007KT 32/06 A3002 RMK A01 T03240058  RH  019%=      5-min Rain = 0
KTH1 302007Z 21005KT 32/06 A3002 RMK A01 T03230062  RH  020%=      5-min Rain = 0
KTH1 302008Z 20006KT 32/06 A3002 RMK A01 T03230057  RH  019%=      5-min Rain = 0
KTH1 302009Z 23005KT 32/06 A3002 RMK A01 T03230059  RH  019%=      5-min Rain = 0
KTH1 302010Z 21004KT 32/05 A3001 RMK A01 T03240050  RH  018%=      5-min Rain = 0
KTH1 302011Z 20005KT 32/06 A3001 RMK A01 T03240062  RH  020%=      5-min Rain = 0
KTH1 302012Z 19006KT 32/06 A3001 RMK A01 T03240061  RH  019%=      5-min Rain = 0
KTH1 302013Z 20009KT 33/06 A3001 RMK A01 T03250060  RH  019%=      5-min Rain = 0
KTH1 302014Z 21007KT 33/06 A3001 RMK A01 T03260060  RH  019%=      5-min Rain = 0
KTH1 302015Z 19006KT 33/06 A3001 RMK A01 T03260059  RH  019%=      5-min Rain = 0
KTH1 302016Z 20005KT 33/08 A3001 RMK A01 T03250075  RH  021%=      5-min Rain = 0
KTH1 302017Z 20004KT 33/07 A3001 RMK A01 T03260072  RH  021%=      5-min Rain = 0
KTH1 302018Z 21003KT 33/07 A3001 RMK A01 T03270065  RH  020%=      5-min Rain = 0
KTH1 302019Z 22005KT 33/07 A3001 RMK A01 T03270071  RH  020%=      5-min Rain = 0
KTH1 302020Z 21007KT 33/06 A3001 RMK A01 T03270064  RH  019%=      5-min Rain = 0
KTH1 302021Z 22005KT 33/06 A3001 RMK A01 T03270061  RH  019%=      5-min Rain = 0
KTH1 302022Z 22005KT 33/06 A3001 RMK A01 T03250060  RH  019%=      5-min Rain = 0
KTH1 302023Z 20005KT 33/06 A3001 RMK A01 T03250064  RH  020%=      5-min Rain = 0
KTH1 302024Z 18006KT 33/07 A3001 RMK A01 T03260070  RH  020%=      5-min Rain = 0
KTH1 302025Z 18005KT 33/06 A3001 RMK A01 T03270056  RH  018%=      5-min Rain = 0
KTH1 302026Z 19007KT 33/06 A3001 RMK A01 T03270055  RH  018%=      5-min Rain = 0
KTH1 302027Z 21006KT 33/05 A3001 RMK A01 T03260050  RH  018%=      5-min Rain = 0
KTH1 302028Z 22006KT 33/05 A3001 RMK A01 T03260051  RH  018%=      5-min Rain = 0
KTH1 302029Z 21005KT 33/06 A3001 RMK A01 T03250062  RH  019%=      5-min Rain = 0
KTH1 302030Z 21006KT 33/07 A3001 RMK A01 T03260070  RH  020%=      5-min Rain = 0
KTH1 302031Z 22007KT 33/06 A3001 RMK A01 T03270064  RH  019%=      5-min Rain = 0
KTH1 302032Z 23006KT 33/05 A3001 RMK A01 T03260049  RH  018%=      5-min Rain = 0
KTH1 302033Z 24004KT 33/05 A3001 RMK A01 T03250053  RH  018%=      5-min Rain = 0
KTH1 302034Z 23004KT 32/05 A3001 RMK A01 T03240053  RH  018%=      5-min Rain = 0
KTH1 302035Z 23003KT 32/05 A3001 RMK A01 T03240054  RH  019%=      5-min Rain = 0
KTH1 302036Z 24005KT 32/07 A3001 RMK A01 T03240066  RH  020%=      5-min Rain = 0
KTH1 302037Z 25005KT 32/08 A3001 RMK A01 T03240083  RH  023%=      5-min Rain = 0
KTH1 302038Z 23006KT 32/10 A3001 RMK A01 T03230101  RH  025%=      5-min Rain = 0
KTH1 302039Z 19006KT 32/08 A3001 RMK A01 T03230079  RH  022%=      5-min Rain = 0
KTH1 302040Z 20006KT 32/05 A3001 RMK A01 T03220051  RH  018%=      5-min Rain = 0
KTH1 302041Z 20003KT 32/07 A3001 RMK A01 T03230069  RH  021%=      5-min Rain = 0
KTH1 302042Z 20004KT 33/07 A3001 RMK A01 T03250074  RH  021%=      5-min Rain = 0
KTH1 302043Z 20006KT 33/05 A3001 RMK A01 T03260050  RH  018%=      5-min Rain = 0
KTH1 302044Z 20005KT 33/06 A3001 RMK A01 T03260059  RH  019%=      5-min Rain = 0
KTH1 302045Z 20007KT 33/08 A3001 RMK A01 T03260075  RH  021%=      5-min Rain = 0
KTH1 302046Z 20006KT 33/06 A3001 RMK A01 T03270058  RH  019%=      5-min Rain = 0
KTH1 302047Z 19005KT 33/06 A3001 RMK A01 T03270057  RH  019%=      5-min Rain = 0
KTH1 302048Z 20003KT 33/07 A3001 RMK A01 T03270066  RH  020%=      5-min Rain = 0
KTH1 302049Z 21003KT 33/06 A3001 RMK A01 T03270056  RH  018%=      5-min Rain = 0
KTH1 302050Z 21003KT 33/07 A3001 RMK A01 T03270073  RH  021%=      5-min Rain = 0
KTH1 302051Z 20004G9KT 33/06 A3001 RMK A01 T03280059  RH  019%=      5-min Rain = 0
KTH1 302052Z 22007KT 33/06 A3001 RMK A01 T03290062  RH  019%=      5-min Rain = 0
KTH1 302053Z 23005KT 33/07 A3001 RMK A01 T03290072  RH  020%=      5-min Rain = 0
KTH1 302054Z 24007KT 33/06 A30 RMK A01 T03290060  RH  019%=      5-min Rain = 0
KTH1 302055Z 23006KT 33/06 A3001 RMK A01 T03270060  RH  019%=      5-min Rain = 0
KTH1 302056Z 24006KT 33/06 A3001 RMK A01 T03260055  RH  018%=      5-min Rain = 0
KTH1 302057Z 23005KT 33/06 A30 RMK A01 T03250055  RH  018%=      5-min Rain = 0
KTH1 302058Z 19002KT 32/05 A30 RMK A01 T03240048  RH  018%=      5-min Rain = 0
KTH1 302059Z 22004KT 33/06 A30 RMK A01 T03250062  RH  019%=      5-min Rain = 0
KTH1 302100Z 23005KT 33/07 A30 RMK A01 T03260069  RH  020%=      5-min Rain = 0
KTH1 302101Z 22005KT 33/07 A30 RMK A01 T03270066  RH  020%=      5-min Rain = 0
KTH1 302102Z 22006KT 33/06 A30 RMK A01 T03270058  RH  019%=      5-min Rain = 0
KTH1 302103Z 19004KT 33/07 A30 RMK A01 T03270073  RH  021%=      5-min Rain = 0
KTH1 302104Z 20005KT 33/08 A30 RMK A01 T03270076  RH  021%=      5-min Rain = 0
KTH1 302105Z 18005KT 33/07 A30 RMK A01 T03270072  RH  020%=      5-min Rain = 0
KTH1 302106Z 18005KT 33/06 A30 RMK A01 T03280064  RH  019%=      5-min Rain = 0
KTH1 302107Z 18005KT 33/06 A30 RMK A01 T03280062  RH  019%=      5-min Rain = 0
KTH1 302108Z 18005KT 33/07 A30 RMK A01 T03280068  RH  020%=      5-min Rain = 0
KTH1 302109Z 19004KT 33/06 A30 RMK A01 T03280063  RH  019%=      5-min Rain = 0
KTH1 302110Z 17002KT 33/06 A30 RMK A01 T03280064  RH  019%=      5-min Rain = 0
KTH1 302111Z 17001KT 33/07 A30 RMK A01 T03290070  RH  020%=      5-min Rain = 0
KTH1 302112Z 24002KT 33/05 A30 RMK A01 T03300054  RH  018%=      5-min Rain = 0
KTH1 302113Z 19003KT 33/07 A30 RMK A01 T03300069  RH  020%=      5-min Rain = 0
KTH1 302114Z 19003KT 33/06 A30 RMK A01 T03310058  RH  018%=      5-min Rain = 0
KTH1 302115Z 18006KT 33/07 A30 RMK A01 T03310066  RH  019%=      5-min Rain = 0
KTH1 302116Z 17006KT 33/05 A30 RMK A01 T03300048  RH  017%=      5-min Rain = 0
KTH1 302117Z 18005KT 33/06 A30 RMK A01 T03280055  RH  018%=      5-min Rain = 0
KTH1 302118Z 17006G11KT 33/06 A30 RMK A01 T03270061  RH  019%=      5-min Rain = 0
KTH1 302119Z 19010G15KT 33/06 A30 RMK A01 T03260061  RH  019%=      5-min Rain = 0
KTH1 302120Z 24006KT 33/06 A30 RMK A01 T03260064  RH  020%=      5-min Rain = 0
KTH1 302121Z 22006KT 33/08 A30 RMK A01 T03260078  RH  022%=      5-min Rain = 0
KTH1 302122Z 22007KT 33/06 A30 RMK A01 T03250058  RH  019%=      5-min Rain = 0
KTH1 302123Z 23006KT 33/06 A30 RMK A01 T03250057  RH  019%=      5-min Rain = 0
KTH1 302124Z 21005KT 33/07 A30 RMK A01 T03250069  RH  020%=      5-min Rain = 0
KTH1 302125Z 19004KT 33/08 A30 RMK A01 T03250075  RH  021%=      5-min Rain = 0
KTH1 302126Z 21005KT 33/06 A30 RMK A01 T03260059  RH  019%=      5-min Rain = 0
KTH1 302127Z 22005KT 33/07 A30 RMK A01 T03270065  RH  020%=      5-min Rain = 0
KTH1 302128Z 21004KT 33/08 A30 RMK A01 T03270075  RH  021%=      5-min Rain = 0
KTH1 302129Z 21004KT 33/07 A30 RMK A01 T03280071  RH  020%=      5-min Rain = 0
KTH1 302130Z 16003KT 33/07 A30 RMK A01 T03290072  RH  020%=      5-min Rain = 0
KTH1 302131Z 16002KT 33/07 A30 RMK A01 T03290074  RH  021%=      5-min Rain = 0
KTH1 302132Z 18004KT 33/07 A30 RMK A01 T03300069  RH  020%=      5-min Rain = 0
KTH1 302133Z 20005KT 33/07 A30 RMK A01 T03300067  RH  019%=      5-min Rain = 0
KTH1 302134Z 20004KT 33/07 A30 RMK A01 T03300067  RH  020%=      5-min Rain = 0
KTH1 302135Z 20005KT 33/09 A30 RMK A01 T03300086  RH  022%=      5-min Rain = 0
KTH1 302136Z 18006KT 33/07 A30 RMK A01 T03300069  RH  020%=      5-min Rain = 0
KTH1 302137Z 21004KT 33/08 A30 RMK A01 T03290076  RH  021%=      5-min Rain = 0
KTH1 302138Z 21006KT 33/07 A30 RMK A01 T03280066  RH  020%=      5-min Rain = 0
KTH1 302139Z 22003KT 33/06 A30 RMK A01 T03270058  RH  019%=      5-min Rain = 0
KTH1 302140Z 20005KT 33/07 A30 RMK A01 T03270072  RH  021%=      5-min Rain = 0
KTH1 302141Z 20005KT 33/07 A30 RMK A01 T03270070  RH  020%=      5-min Rain = 0
KTH1 302142Z 18005KT 33/05 A30 RMK A01 T03270047  RH  017%=      5-min Rain = 0
KTH1 302143Z 18005KT 33/07 A30 RMK A01 T03270067  RH  020%=      5-min Rain = 0
KTH1 302144Z 19005KT 33/07 A30 RMK A01 T03270065  RH  020%=      5-min Rain = 0
KTH1 302145Z 19005KT 33/06 A30 RMK A01 T03260063  RH  019%=      5-min Rain = 0
KTH1 302146Z 18006KT 33/06 A30 RMK A01 T03260063  RH  019%=      5-min Rain = 0
KTH1 302147Z 19007KT 33/07 A30 RMK A01 T03260069  RH  020%=      5-min Rain = 0
KTH1 302148Z 21007KT 33/07 A30 RMK A01 T03260065  RH  020%=      5-min Rain = 0
KTH1 302149Z 21006KT 33/06 A30 RMK A01 T03250061  RH  019%=      5-min Rain = 0
KTH1 302150Z 20005KT 33/06 A30 RMK A01 T03250061  RH  019%=      5-min Rain = 0
KTH1 302151Z 20004KT 33/07 A30 RMK A01 T03250070  RH  021%=      5-min Rain = 0
KTH1 302152Z 20004KT 33/07 A30 RMK A01 T03250069  RH  020%=      5-min Rain = 0
KTH1 302153Z 20004KT 33/07 A30 RMK A01 T03250067  RH  020%=      5-min Rain = 0
KTH1 302154Z 18005KT 33/07 A30 RMK A01 T03250065  RH  020%=      5-min Rain = 0
KTH1 302155Z 18005KT 33/08 A30 RMK A01 T03260076  RH  021%=      5-min Rain = 0
KTH1 302156Z 18006KT 33/06 A30 RMK A01 T03260061  RH  019%=      5-min Rain = 0
KTH1 302157Z 18005KT 33/07 A30 RMK A01 T03260067  RH  020%=      5-min Rain = 0
KTH1 302158Z 18004KT 33/08 A30 RMK A01 T03260080  RH  022%=      5-min Rain = 0
KTH1 302159Z 17004KT 33/07 A30 RMK A01 T03260073  RH  021%=      5-min Rain = 0
KTH1 302200Z 17005KT 33/06 A2999 RMK A01 T03250059  RH  019%=      5-min Rain = 0
KTH1 302201Z 17003KT 33/07 A2999 RMK A01 T03250067  RH  020%=      5-min Rain = 0
KTH1 302202Z 19003KT 33/08 A30 RMK A01 T03250077  RH  021%=      5-min Rain = 0
KTH1 302203Z 21004KT 33/07 A30 RMK A01 T03260071  RH  020%=      5-min Rain = 0
KTH1 302204Z 24003KT 33/09 A30 RMK A01 T03260086  RH  023%=      5-min Rain = 0
KTH1 302205Z 23004KT 33/07 A30 RMK A01 T03250070  RH  020%=      5-min Rain = 0
KTH1 302206Z 23004KT 33/06 A30 RMK A01 T03250064  RH  020%=      5-min Rain = 0
KTH1 302207Z 24001KT 33/08 A30 RMK A01 T03250080  RH  022%=      5-min Rain = 0
KTH1 302208Z 22004KT 33/09 A30 RMK A01 T03250086  RH  023%=      5-min Rain = 0
KTH1 302209Z 24003KT 33/08 A30 RMK A01 T03270084  RH  022%=      5-min Rain = 0
KTH1 302210Z 20005KT 33/08 A30 RMK A01 T03270080  RH  022%=      5-min Rain = 0
KTH1 302211Z 21006KT 33/06 A30 RMK A01 T03270061  RH  019%=      5-min Rain = 0
KTH1 302212Z 19004KT 33/07 A30 RMK A01 T03260067  RH  020%=      5-min Rain = 0
KTH1 302213Z 19004KT 33/07 A30 RMK A01 T03250073  RH  021%=      5-min Rain = 0
KTH1 302214Z 18003KT 33/07 A30 RMK A01 T03260072  RH  021%=      5-min Rain = 0
KTH1 302215Z 18004KT 33/07 A30 RMK A01 T03260069  RH  020%=      5-min Rain = 0
KTH1 302216Z 18002KT 33/07 A30 RMK A01 T03260073  RH  021%=      5-min Rain = 0
KTH1 302217Z 21004KT 33/08 A30 RMK A01 T03270084  RH  022%=      5-min Rain = 0
KTH1 302218Z 19004KT 33/07 A30 RMK A01 T03290071  RH  020%=      5-min Rain = 0
KTH1 302219Z 18002KT 33/07 A30 RMK A01 T03290070  RH  020%=      5-min Rain = 0
KTH1 302220Z 20002KT 33/07 A30 RMK A01 T03280070  RH  020%=      5-min Rain = 0
KTH1 302221Z 21002KT 33/07 A30 RMK A01 T03280067  RH  020%=      5-min Rain = 0
KTH1 302222Z 18000KT 33/07 A30 RMK A01 T03280073  RH  021%=      5-min Rain = 0
KTH1 302223Z 16000KT 33/10 A30 RMK A01 T03280097  RH  024%=      5-min Rain = 0
KTH1 302224Z 19002KT 33/08 A30 RMK A01 T03300084  RH  022%=      5-min Rain = 0
KTH1 302225Z 20001KT 33/09 A30 RMK A01 T03320087  RH  022%=      5-min Rain = 0
KTH1 302226Z 18003KT 33/09 A30 RMK A01 T03320090  RH  023%=      5-min Rain = 0
KTH1 302227Z 17003KT 33/09 A30 RMK A01 T03330086  RH  022%=      5-min Rain = 0
KTH1 302228Z 21003KT 33/08 A30 RMK A01 T03320082  RH  021%=      5-min Rain = 0
KTH1 302229Z 21005KT 33/07 A30 RMK A01 T03300069  RH  020%=      5-min Rain = 0
KTH1 302230Z 20004KT 33/07 A30 RMK A01 T03280072  RH  020%=      5-min Rain = 0
KTH1 302231Z 19003KT 33/07 A30 RMK A01 T03270072  RH  020%=      5-min Rain = 0
KTH1 302232Z 20005KT 33/07 A30 RMK A01 T03270068  RH  020%=      5-min Rain = 0
KTH1 302233Z 21004KT 33/06 A30 RMK A01 T03260055  RH  018%=      5-min Rain = 0
KTH1 302234Z 20004KT 33/06 A30 RMK A01 T03250059  RH  019%=      5-min Rain = 0
KTH1 302235Z 20003KT 33/07 A30 RMK A01 T03250069  RH  020%=      5-min Rain = 0
KTH1 302236Z 20003KT 32/07 A30 RMK A01 T03240071  RH  021%=      5-min Rain = 0
KTH1 302237Z 19004KT 32/07 A30 RMK A01 T03240073  RH  021%=      5-min Rain = 0
KTH1 302238Z 20004KT 32/08 A30 RMK A01 T03240079  RH  022%=      5-min Rain = 0
KTH1 302239Z 19002KT 32/07 A30 RMK A01 T03240074  RH  021%=      5-min Rain = 0
KTH1 302240Z 21003KT 32/07 A30 RMK A01 T03240071  RH  021%=      5-min Rain = 0
KTH1 302241Z 21003KT 32/08 A30 RMK A01 T03240079  RH  022%=      5-min Rain = 0
KTH1 302242Z 20003KT 32/09 A30 RMK A01 T03240088  RH  023%=      5-min Rain = 0
KTH1 302243Z 20005KT 32/09 A30 RMK A01 T03240086  RH  023%=      5-min Rain = 0
KTH1 302244Z 19005KT 32/07 A30 RMK A01 T03230073  RH  021%=      5-min Rain = 0
KTH1 302245Z 19005KT 32/08 A30 RMK A01 T03230076  RH  022%=      5-min Rain = 0
KTH1 302246Z 20004KT 32/08 A30 RMK A01 T03220075  RH  021%=      5-min Rain = 0
KTH1 302247Z 19005KT 32/08 A30 RMK A01 T03220075  RH  022%=      5-min Rain = 0
KTH1 302248Z 20005KT 32/08 A30 RMK A01 T03210077  RH  022%=      5-min Rain = 0
KTH1 302249Z 21004KT 32/07 A30 RMK A01 T03210070  RH  021%=      5-min Rain = 0
KTH1 302250Z 21005KT 32/08 A30 RMK A01 T03200078  RH  022%=      5-min Rain = 0
KTH1 302251Z 21004KT 32/07 A30 RMK A01 T03190072  RH  022%=      5-min Rain = 0
KTH1 302252Z 19005KT 32/07 A3001 RMK A01 T03190067  RH  021%=      5-min Rain = 0
KTH1 302253Z 19005KT 32/07 A3001 RMK A01 T03190069  RH  021%=      5-min Rain = 0
KTH1 302254Z 19005KT 32/07 A3001 RMK A01 T03190074  RH  022%=      5-min Rain = 0
KTH1 302255Z 19004KT 32/08 A3001 RMK A01 T03190077  RH  022%=      5-min Rain = 0
KTH1 302256Z 19005KT 32/07 A3001 RMK A01 T03190069  RH  021%=      5-min Rain = 0
KTH1 302257Z 20003KT 32/07 A3001 RMK A01 T03190074  RH  022%=      5-min Rain = 0
KTH1 302258Z 19003KT 32/08 A3001 RMK A01 T03180078  RH  023%=      5-min Rain = 0
KTH1 302259Z 20004KT 32/08 A3001 RMK A01 T03180077  RH  022%=      5-min Rain = 0
KTH1 302300Z 19005KT 32/07 A3001 RMK A01 T03180074  RH  022%=      5-min Rain = 0
KTH1 302301Z 20005KT 32/07 A3001 RMK A01 T03180067  RH  021%=      5-min Rain = 0
KTH1 302302Z 20004KT 32/08 A3001 RMK A01 T03180075  RH  022%=      5-min Rain = 0
KTH1 302303Z 19003KT 32/08 A3001 RMK A01 T03180078  RH  023%=      5-min Rain = 0
KTH1 302304Z 20002KT 32/08 A3001 RMK A01 T03180079  RH  023%=      5-min Rain = 0
KTH1 302305Z 20004KT 32/07 A3001 RMK A01 T03190073  RH  022%=      5-min Rain = 0
KTH1 302306Z 18004KT 32/07 A3001 RMK A01 T03190073  RH  022%=      5-min Rain = 0
KTH1 302307Z 18002KT 32/08 A3001 RMK A01 T03190076  RH  022%=      5-min Rain = 0
KTH1 302308Z 19003KT 32/08 A3001 RMK A01 T03190077  RH  022%=      5-min Rain = 0
KTH1 302309Z 19003KT 32/08 A3001 RMK A01 T03180075  RH  022%=      5-min Rain = 0
KTH1 302310Z 18003KT 32/07 A3001 RMK A01 T03180074  RH  022%=      5-min Rain = 0
KTH1 302311Z 18003KT 32/08 A3001 RMK A01 T03180076  RH  022%=      5-min Rain = 0
KTH1 302312Z 18003KT 32/07 A3001 RMK A01 T03190074  RH  022%=      5-min Rain = 0
KTH1 302313Z 17003KT 32/08 A3001 RMK A01 T03180079  RH  023%=      5-min Rain = 0
KTH1 302314Z 20003KT 32/08 A3001 RMK A01 T03180082  RH  023%=      5-min Rain = 0
KTH1 302315Z 18002KT 32/08 A3001 RMK A01 T03170082  RH  023%=      5-min Rain = 0
KTH1 302316Z 18002KT 32/09 A3001 RMK A01 T03170086  RH  024%=      5-min Rain = 0
KTH1 302317Z 19003KT 32/09 A3001 RMK A01 T03170085  RH  024%=      5-min Rain = 0
KTH1 302318Z 18003KT 32/08 A3001 RMK A01 T03170083  RH  023%=      5-min Rain = 0
KTH1 302319Z 18003KT 32/09 A3001 RMK A01 T03160086  RH  024%=      5-min Rain = 0
KTH1 302320Z 17003KT 31/09 A3001 RMK A01 T03140090  RH  025%=      5-min Rain = 0
KTH1 302321Z 17003KT 31/09 A3001 RMK A01 T03130088  RH  025%=      5-min Rain = 0
KTH1 302322Z 17003KT 31/09 A3001 RMK A01 T03130087  RH  025%=      5-min Rain = 0
KTH1 302323Z 17003KT 31/09 A3001 RMK A01 T03130086  RH  024%=      5-min Rain = 0
KTH1 302324Z 17003KT 31/09 A3001 RMK A01 T03120085  RH  024%=      5-min Rain = 0
KTH1 302325Z 18003KT 31/09 A3001 RMK A01 T03120085  RH  024%=      5-min Rain = 0
KTH1 302326Z 18003KT 31/09 A3001 RMK A01 T03110088  RH  025%=      5-min Rain = 0
KTH1 302327Z 18003KT 31/08 A3001 RMK A01 T03100084  RH  024%=      5-min Rain = 0
KTH1 302328Z 18003KT 31/08 A3001 RMK A01 T03100083  RH  024%=      5-min Rain = 0
KTH1 302329Z 19003KT 31/09 A3001 RMK A01 T03100086  RH  025%=      5-min Rain = 0
KTH1 302330Z 18003KT 31/08 A3001 RMK A01 T03090084  RH  025%=      5-min Rain = 0
KTH1 302331Z 19003KT 31/08 A3001 RMK A01 T03090083  RH  024%=      5-min Rain = 0
KTH1 302332Z 18003KT 31/08 A3001 RMK A01 T03090082  RH  024%=      5-min Rain = 0
KTH1 302333Z 18003KT 31/09 A3001 RMK A01 T03090085  RH  025%=      5-min Rain = 0
KTH1 302334Z 18003KT 31/09 A3001 RMK A01 T03080088  RH  026%=      5-min Rain = 0
KTH1 302335Z 19003KT 31/09 A3001 RMK A01 T03070089  RH  026%=      5-min Rain = 0
KTH1 302336Z 19003KT 31/09 A3001 RMK A01 T03060090  RH  026%=      5-min Rain = 0
KTH1 302337Z 19003KT 31/09 A3001 RMK A01 T03060088  RH  026%=      5-min Rain = 0
KTH1 302338Z 19003KT 31/09 A3001 RMK A01 T03050089  RH  026%=      5-min Rain = 0
KTH1 302339Z 18003KT 30/09 A3001 RMK A01 T03040086  RH  026%=      5-min Rain = 0
KTH1 302340Z 18003KT 30/08 A3001 RMK A01 T03030084  RH  025%=      5-min Rain = 0
KTH1 302341Z 18003KT 30/09 A3001 RMK A01 T03030086  RH  026%=      5-min Rain = 0
KTH1 302342Z 18003KT 30/09 A3001 RMK A01 T03010085  RH  026%=      5-min Rain = 0
KTH1 302343Z 18003KT 30/09 A3001 RMK A01 T03000086  RH  026%=      5-min Rain = 0
KTH1 302344Z 18003KT 30/09 A3001 RMK A01 T02990087  RH  027%=      5-min Rain = 0
KTH1 302345Z 18003KT 30/09 A3001 RMK A01 T02980087  RH  027%=      5-min Rain = 0
KTH1 302346Z 18004KT 30/09 A3001 RMK A01 T02970087  RH  027%=      5-min Rain = 0
KTH1 302347Z 18004KT 30/09 A3001 RMK A01 T02960089  RH  027%=      5-min Rain = 0
KTH1 302348Z 18004KT 30/09 A3001 RMK A01 T02950088  RH  027%=      5-min Rain = 0
KTH1 302349Z 16003KT 29/09 A3001 RMK A01 T02940090  RH  028%=      5-min Rain = 0
KTH1 302350Z 17004KT 29/09 A3001 RMK A01 T02930090  RH  028%=      5-min Rain = 0
KTH1 302351Z 17004KT 29/09 A3001 RMK A01 T02920088  RH  028%=      5-min Rain = 0
KTH1 302352Z 17004KT 29/09 A3001 RMK A01 T02910089  RH  028%=      5-min Rain = 0
KTH1 302353Z 17004KT 29/09 A3001 RMK A01 T02900086  RH  028%=      5-min Rain = 0
KTH1 302354Z 17003KT 29/09 A3001 RMK A01 T02900087  RH  028%=      5-min Rain = 0
KTH1 302355Z 17003KT 29/09 A3001 RMK A01 T02900090  RH  029%=      5-min Rain = 0
KTH1 302356Z 18003KT 29/09 A3001 RMK A01 T02890089  RH  029%=      5-min Rain = 0
KTH1 302357Z 18003KT 29/09 A3001 RMK A01 T02880091  RH  029%=      5-min Rain = 0
KTH1 302358Z 18004KT 29/09 A3001 RMK A01 T02880093  RH  030%=      5-min Rain = 0
KTH1 302359Z 18004KT 29/09 A3002 RMK A01 T02870092  RH  029%=      5-min Rain = 0
KTH1 010000Z 18003KT 29/09 A3002 RMK A01 T02860089  RH  029%=      5-min Rain = 0
KTH1 010001Z 18003KT 29/09 A3001 RMK A01 T02850090  RH  029%=      5-min Rain = 0
KTH1 010002Z 18003KT 28/09 A3001 RMK A01 T02840089  RH  030%=      5-min Rain = 0
KTH1 010003Z 18004KT 28/09 A3001 RMK A01 T02830090  RH  030%=      5-min Rain = 0
KTH1 010004Z 18004KT 28/09 A3002 RMK A01 T02820091  RH  030%=      5-min Rain = 0
KTH1 010005Z 18004KT 28/09 A3002 RMK A01 T02810089  RH  030%=      5-min Rain = 0
KTH1 010006Z 18004KT 28/09 A3002 RMK A01 T02800090  RH  030%=      5-min Rain = 0
KTH1 010007Z 17004KT 28/09 A3002 RMK A01 T02790090  RH  030%=      5-min Rain = 0
KTH1 010008Z 17004KT 28/09 A3002 RMK A01 T02780090  RH  031%=      5-min Rain = 0
KTH1 010009Z 17004KT 28/09 A3002 RMK A01 T02780089  RH  031%=      5-min Rain = 0
KTH1 010010Z 17004KT 28/09 A3002 RMK A01 T02770088  RH  030%=      5-min Rain = 0
KTH1 010011Z 17004KT 28/09 A3002 RMK A01 T02770088  RH  031%=      5-min Rain = 0
KTH1 010012Z 17004KT 28/09 A3002 RMK A01 T02760088  RH  031%=      5-min Rain = 0
KTH1 010013Z 17004KT 27/09 A3002 RMK A01 T02740088  RH  031%=      5-min Rain = 0
KTH1 010014Z 17005KT 27/09 A3002 RMK A01 T02730089  RH  031%=      5-min Rain = 0
KTH1 010015Z 17005KT 27/09 A3002 RMK A01 T02720088  RH  031%=      5-min Rain = 0
KTH1 010016Z 17005KT 27/09 A3002 RMK A01 T02710089  RH  032%=      5-min Rain = 0
KTH1 010017Z 17005KT 27/09 A3002 RMK A01 T02700088  RH  032%=      5-min Rain = 0
KTH1 010018Z 17005KT 27/09 A3002 RMK A01 T02690088  RH  032%=      5-min Rain = 0
KTH1 010019Z 17005KT 27/09 A3002 RMK A01 T02680088  RH  032%=      5-min Rain = 0
KTH1 010020Z 17004KT 27/09 A3002 RMK A01 T02670088  RH  032%=      5-min Rain = 0
KTH1 010021Z 17005KT 27/09 A3002 RMK A01 T02660088  RH  033%=      5-min Rain = 0
KTH1 010022Z 17004KT 27/09 A3002 RMK A01 T02650088  RH  033%=      5-min Rain = 0
KTH1 010023Z 17004KT 26/09 A3002 RMK A01 T02640088  RH  033%=      5-min Rain = 0
KTH1 010024Z 17005KT 26/09 A3002 RMK A01 T02620086  RH  033%=      5-min Rain = 0
KTH1 010025Z 17005KT 26/09 A3002 RMK A01 T02620086  RH  033%=      5-min Rain = 0
KTH1 010026Z 17005KT 26/09 A3002 RMK A01 T02610086  RH  033%=      5-min Rain = 0
KTH1 010027Z 16005KT 26/09 A3002 RMK A01 T02600086  RH  033%=      5-min Rain = 0
KTH1 010028Z 16005KT 26/09 A3002 RMK A01 T02600090  RH  034%=      5-min Rain = 0
KTH1 010029Z 16004KT 26/09 A3002 RMK A01 T02580093  RH  035%=      5-min Rain = 0
KTH1 010030Z 16005KT 26/10 A3002 RMK A01 T02560096  RH  036%=      5-min Rain = 0
KTH1 010031Z 16005KT 25/10 A3002 RMK A01 T02540096  RH  037%=      5-min Rain = 0
KTH1 010032Z 16005KT 25/10 A3002 RMK A01 T02530097  RH  037%=      5-min Rain = 0
KTH1 010033Z 15006KT 25/10 A3002 RMK A01 T02510096  RH  037%=      5-min Rain = 0
KTH1 010034Z 15005KT 25/09 A3002 RMK A01 T02500094  RH  037%=      5-min Rain = 0
KTH1 010035Z 15005KT 25/09 A3002 RMK A01 T02490093  RH  037%=      5-min Rain = 0
KTH1 010036Z 15006KT 25/09 A3002 RMK A01 T02480093  RH  037%=      5-min Rain = 0
KTH1 010037Z 15005KT 25/09 A3002 RMK A01 T02470088  RH  036%=      5-min Rain = 0
KTH1 010038Z 16005KT 25/09 A3002 RMK A01 T02470086  RH  036%=      5-min Rain = 0
KTH1 010039Z 16005KT 25/09 A3002 RMK A01 T02480086  RH  036%=      5-min Rain = 0
KTH1 010040Z 16006KT 25/09 A3002 RMK A01 T02480085  RH  035%=      5-min Rain = 0
KTH1 010041Z 16006KT 25/09 A3002 RMK A01 T02480085  RH  035%=      5-min Rain = 0
KTH1 010042Z 16006KT 25/08 A3002 RMK A01 T02490083  RH  035%=      5-min Rain = 0
KTH1 010043Z 16006KT 25/09 A3002 RMK A01 T02490085  RH  035%=      5-min Rain = 0
KTH1 010044Z 16005KT 25/09 A3002 RMK A01 T02490085  RH  035%=      5-min Rain = 0
KTH1 010045Z 16005KT 25/08 A3002 RMK A01 T02480083  RH  035%=      5-min Rain = 0
KTH1 010046Z 17005KT 25/08 A3002 RMK A01 T02480084  RH  035%=      5-min Rain = 0
KTH1 010047Z 17006KT 25/08 A3002 RMK A01 T02480083  RH  035%=      5-min Rain = 0
KTH1 010048Z 17006KT 25/08 A3002 RMK A01 T02480083  RH  035%=      5-min Rain = 0
KTH1 010049Z 17005KT 25/08 A3002 RMK A01 T02480082  RH  035%=      5-min Rain = 0
KTH1 010050Z 17005KT 25/08 A3002 RMK A01 T02480081  RH  035%=      5-min Rain = 0
KTH1 010051Z 17005KT 25/08 A3002 RMK A01 T02490080  RH  034%=      5-min Rain = 0
KTH1 010052Z 17005KT 25/08 A3002 RMK A01 T02490081  RH  034%=      5-min Rain = 0
KTH1 010053Z 17005KT 25/08 A3003 RMK A01 T02490080  RH  034%=      5-min Rain = 0
KTH1 010054Z 17005KT 25/08 A3003 RMK A01 T02490081  RH  034%=      5-min Rain = 0
KTH1 010055Z 17005KT 25/08 A3003 RMK A01 T02490081  RH  034%=      5-min Rain = 0
KTH1 010056Z 17005KT 25/08 A3003 RMK A01 T02480081  RH  034%=      5-min Rain = 0
KTH1 010057Z 16005KT 25/08 A3003 RMK A01 T02470081  RH  035%=      5-min Rain = 0
KTH1 010058Z 17005KT 25/08 A3003 RMK A01 T02470081  RH  035%=      5-min Rain = 0
KTH1 010059Z 17005KT 25/08 A3003 RMK A01 T02460082  RH  035%=      5-min Rain = 0
KTH1 010100Z 17005KT 25/08 A3003 RMK A01 T02450082  RH  035%=      5-min Rain = 0
KTH1 010101Z 17005KT 24/08 A3003 RMK A01 T02440082  RH  035%=      5-min Rain = 0
KTH1 010102Z 17005KT 24/08 A3003 RMK A01 T02440081  RH  035%=      5-min Rain = 0
KTH1 010103Z 17005KT 24/08 A3003 RMK A01 T02440082  RH  035%=      5-min Rain = 0
KTH1 010104Z 17005KT 24/08 A3003 RMK A01 T02440082  RH  036%=      5-min Rain = 0
KTH1 010105Z 17006KT 24/08 A3003 RMK A01 T02430082  RH  036%=      5-min Rain = 0
KTH1 010106Z 17005KT 24/08 A3003 RMK A01 T02430082  RH  036%=      5-min Rain = 0
KTH1 010107Z 17006KT 24/08 A3003 RMK A01 T02430082  RH  036%=      5-min Rain = 0
KTH1 010108Z 17006KT 24/08 A3003 RMK A01 T02420081  RH  036%=      5-min Rain = 0
KTH1 010109Z 17006KT 24/08 A3003 RMK A01 T02420082  RH  036%=      5-min Rain = 0
KTH1 010110Z 17006KT 24/08 A3003 RMK A01 T02420081  RH  036%=      5-min Rain = 0
KTH1 010111Z 17006KT 24/08 A3003 RMK A01 T02420081  RH  036%=      5-min Rain = 0
KTH1 010112Z 17006KT 24/08 A3003 RMK A01 T02420081  RH  036%=      5-min Rain = 0
KTH1 010113Z 17006KT 24/08 A3003 RMK A01 T02420082  RH  036%=      5-min Rain = 0
KTH1 010114Z 16006KT 24/08 A3003 RMK A01 T02410083  RH  036%=      5-min Rain = 0
KTH1 010115Z 16006KT 24/08 A3003 RMK A01 T02410082  RH  036%=      5-min Rain = 0
KTH1 010116Z 17006KT 24/08 A3003 RMK A01 T02400083  RH  037%=      5-min Rain = 0
KTH1 010117Z 16006KT 24/08 A3003 RMK A01 T02390082  RH  037%=      5-min Rain = 0
KTH1 010118Z 17006KT 24/08 A3003 RMK A01 T02380082  RH  037%=      5-min Rain = 0
KTH1 010119Z 17006KT 24/08 A3003 RMK A01 T02380082  RH  037%=      5-min Rain = 0
KTH1 010120Z 17006KT 24/08 A3003 RMK A01 T02380082  RH  037%=      5-min Rain = 0
KTH1 010121Z 17006KT 24/08 A3003 RMK A01 T02370083  RH  037%=      5-min Rain = 0
KTH1 010122Z 17006KT 24/08 A3003 RMK A01 T02350083  RH  038%=      5-min Rain = 0
KTH1 010123Z 17006KT 23/08 A3003 RMK A01 T02340083  RH  038%=      5-min Rain = 0
KTH1 010124Z 17006KT 23/08 A3003 RMK A01 T02330082  RH  038%=      5-min Rain = 0
KTH1 010125Z 17006KT 23/08 A3004 RMK A01 T02330082  RH  038%=      5-min Rain = 0
KTH1 010126Z 17006KT 23/08 A3004 RMK A01 T02330082  RH  038%=      5-min Rain = 0
KTH1 010127Z 17006KT 23/08 A3004 RMK A01 T02330082  RH  038%=      5-min Rain = 0
KTH1 010128Z 17006KT 23/08 A3004 RMK A01 T02330082  RH  038%=      5-min Rain = 0
KTH1 010129Z 17006KT 23/08 A3004 RMK A01 T02330083  RH  038%=      5-min Rain = 0
KTH1 010130Z 17006KT 23/08 A3004 RMK A01 T02330083  RH  038%=      5-min Rain = 0
KTH1 010131Z 17006KT 23/08 A3004 RMK A01 T02330082  RH  038%=      5-min Rain = 0
KTH1 010132Z 17006KT 23/08 A3004 RMK A01 T02320082  RH  038%=      5-min Rain = 0
KTH1 010133Z 17006KT 23/08 A3004 RMK A01 T02320081  RH  038%=      5-min Rain = 0
KTH1 010134Z 17006KT 23/08 A3004 RMK A01 T02320082  RH  038%=      5-min Rain = 0
KTH1 010135Z 17006KT 23/08 A3004 RMK A01 T02320081  RH  038%=      5-min Rain = 0
KTH1 010136Z 17006KT 23/08 A3004 RMK A01 T02320081  RH  038%=      5-min Rain = 0
KTH1 010137Z 17006KT 23/08 A3004 RMK A01 T02320080  RH  038%=      5-min Rain = 0
KTH1 010138Z 17006KT 23/08 A3004 RMK A01 T02320081  RH  038%=      5-min Rain = 0
KTH1 010139Z 17006KT 23/08 A3004 RMK A01 T02320080  RH  038%=      5-min Rain = 0
KTH1 010140Z 17005KT 23/08 A3004 RMK A01 T02320081  RH  038%=      5-min Rain = 0
KTH1 010141Z 17006KT 23/08 A3004 RMK A01 T02310081  RH  038%=      5-min Rain = 0
KTH1 010142Z 17005KT 23/08 A3004 RMK A01 T02300081  RH  038%=      5-min Rain = 0
KTH1 010143Z 17005KT 23/08 A3004 RMK A01 T02300080  RH  038%=      5-min Rain = 0
KTH1 010144Z 17005KT 23/08 A3004 RMK A01 T02290080  RH  038%=      5-min Rain = 0
KTH1 010145Z 17006KT 23/08 A3004 RMK A01 T02280079  RH  038%=      5-min Rain = 0
KTH1 010146Z 17005KT 23/08 A3004 RMK A01 T02280079  RH  038%=      5-min Rain = 0
KTH1 010147Z 17005KT 23/08 A3004 RMK A01 T02280079  RH  038%=      5-min Rain = 0
KTH1 010148Z 17005KT 23/08 A3004 RMK A01 T02280078  RH  038%=      5-min Rain = 0
KTH1 010149Z 17006KT 23/08 A3004 RMK A01 T02270079  RH  038%=      5-min Rain = 0
KTH1 010150Z 17005KT 23/08 A3004 RMK A01 T02270079  RH  039%=      5-min Rain = 0
KTH1 010151Z 17005KT 23/08 A3004 RMK A01 T02270079  RH  039%=      5-min Rain = 0
KTH1 010152Z 17005KT 23/08 A3004 RMK A01 T02260078  RH  039%=      5-min Rain = 0
KTH1 010153Z 17005KT 23/08 A3005 RMK A01 T02260077  RH  038%=      5-min Rain = 0
KTH1 010154Z 17006KT 23/08 A3005 RMK A01 T02260077  RH  038%=      5-min Rain = 0
KTH1 010155Z 17006KT 23/08 A3005 RMK A01 T02260078  RH  039%=      5-min Rain = 0
KTH1 010156Z 17006KT 23/08 A3005 RMK A01 T02260077  RH  038%=      5-min Rain = 0
KTH1 010157Z 17005KT 23/08 A3005 RMK A01 T02250076  RH  038%=      5-min Rain = 0
KTH1 010158Z 17005KT 23/08 A3005 RMK A01 T02250076  RH  038%=      5-min Rain = 0
KTH1 010159Z 18005KT 23/08 A3005 RMK A01 T02250075  RH  038%=      5-min Rain = 0
KTH1 010200Z 18005KT 23/07 A3005 RMK A01 T02250074  RH  038%=      5-min Rain = 0
KTH1 010201Z 18005KT 23/07 A3005 RMK A01 T02260073  RH  037%=      5-min Rain = 0
KTH1 010202Z 18005KT 23/07 A3005 RMK A01 T02270072  RH  037%=      5-min Rain = 0
KTH1 010203Z 17005KT 23/07 A3005 RMK A01 T02270072  RH  037%=      5-min Rain = 0
KTH1 010204Z 18004KT 23/07 A3005 RMK A01 T02280072  RH  037%=      5-min Rain = 0
KTH1 010205Z 18005KT 23/07 A3005 RMK A01 T02280071  RH  036%=      5-min Rain = 0
KTH1 010206Z 17005KT 23/07 A3005 RMK A01 T02290071  RH  036%=      5-min Rain = 0
KTH1 010207Z 18005KT 23/07 A3005 RMK A01 T02290071  RH  036%=      5-min Rain = 0
KTH1 010208Z 17004KT 23/07 A3005 RMK A01 T02280071  RH  036%=      5-min Rain = 0
KTH1 010209Z 18004KT 23/07 A3005 RMK A01 T02290071  RH  036%=      5-min Rain = 0
KTH1 010210Z 17005KT 23/07 A3005 RMK A01 T02280070  RH  036%=      5-min Rain = 0
KTH1 010211Z 17004KT 23/07 A3005 RMK A01 T02290072  RH  036%=      5-min Rain = 0
KTH1 010212Z 18004KT 23/07 A3005 RMK A01 T02280070  RH  036%=      5-min Rain = 0
KTH1 010213Z 18004KT 23/07 A3005 RMK A01 T02280069  RH  036%=      5-min Rain = 0
KTH1 010214Z 18004KT 23/07 A3005 RMK A01 T02280069  RH  036%=      5-min Rain = 0
KTH1 010215Z 18005KT 23/07 A3005 RMK A01 T02280069  RH  036%=      5-min Rain = 0
KTH1 010216Z 18004KT 23/07 A3005 RMK A01 T02290070  RH  036%=      5-min Rain = 0
KTH1 010217Z 18005KT 23/07 A3005 RMK A01 T02280069  RH  036%=      5-min Rain = 0
KTH1 010218Z 18005KT 23/07 A3005 RMK A01 T02290068  RH  036%=      5-min Rain = 0
KTH1 010219Z 18005KT 23/07 A3005 RMK A01 T02290068  RH  036%=      5-min Rain = 0
KTH1 010220Z 18004KT 23/07 A3005 RMK A01 T02290068  RH  035%=      5-min Rain = 0
KTH1 010221Z 18004KT 23/07 A3005 RMK A01 T02290068  RH  035%=      5-min Rain = 0
KTH1 010222Z 18004KT 23/07 A3005 RMK A01 T02290068  RH  035%=      5-min Rain = 0
KTH1 010223Z 18004KT 23/07 A3005 RMK A01 T02280068  RH  036%=      5-min Rain = 0
KTH1 010224Z 18004KT 23/07 A3005 RMK A01 T02280067  RH  035%=      5-min Rain = 0
KTH1 010225Z 18004KT 23/07 A3005 RMK A01 T02280067  RH  035%=      5-min Rain = 0
KTH1 010226Z 18004KT 23/07 A3006 RMK A01 T02280067  RH  035%=      5-min Rain = 0
KTH1 010227Z 18004KT 23/07 A3006 RMK A01 T02270066  RH  035%=      5-min Rain = 0
KTH1 010228Z 19004KT 23/06 A3006 RMK A01 T02270064  RH  035%=      5-min Rain = 0
KTH1 010229Z 18004KT 23/06 A3006 RMK A01 T02260064  RH  035%=      5-min Rain = 0
KTH1 010230Z 17004KT 23/06 A3006 RMK A01 T02260064  RH  035%=      5-min Rain = 0
KTH1 010231Z 16005KT 23/07 A3006 RMK A01 T02260066  RH  036%=      5-min Rain = 0
KTH1 010232Z 17005KT 23/07 A3006 RMK A01 T02250068  RH  036%=      5-min Rain = 0
KTH1 010233Z 18005KT 22/07 A3006 RMK A01 T02230068  RH  037%=      5-min Rain = 0
KTH1 010234Z 18005KT 22/07 A3006 RMK A01 T02220066  RH  036%=      5-min Rain = 0
KTH1 010235Z 18005KT 22/07 A3006 RMK A01 T02220065  RH  036%=      5-min Rain = 0
KTH1 010236Z 17004KT 22/07 A3006 RMK A01 T02220066  RH  036%=      5-min Rain = 0
KTH1 010237Z 18004KT 22/06 A3006 RMK A01 T02220063  RH  036%=      5-min Rain = 0
KTH1 010238Z 17004KT 22/06 A3006 RMK A01 T02220063  RH  036%=      5-min Rain = 0
KTH1 010239Z 17004KT 22/06 A3006 RMK A01 T02220063  RH  036%=      5-min Rain = 0
KTH1 010240Z 17005KT 22/06 A3006 RMK A01 T02210064  RH  036%=      5-min Rain = 0
KTH1 010241Z 17005KT 22/06 A3006 RMK A01 T02210064  RH  036%=      5-min Rain = 0
KTH1 010242Z 17004KT 22/06 A3006 RMK A01 T02200063  RH  036%=      5-min Rain = 0
KTH1 010243Z 17004KT 22/06 A3006 RMK A01 T02200063  RH  036%=      5-min Rain = 0
KTH1 010244Z 17004KT 22/07 A3006 RMK A01 T02200065  RH  036%=      5-min Rain = 0
KTH1 010245Z 17004KT 22/06 A3006 RMK A01 T02200063  RH  036%=      5-min Rain = 0
KTH1 010246Z 17004KT 22/06 A3006 RMK A01 T02190063  RH  036%=      5-min Rain = 0
KTH1 010247Z 18005KT 22/06 A3006 RMK A01 T02200064  RH  036%=      5-min Rain = 0
KTH1 010248Z 18004KT 22/06 A3006 RMK A01 T02190064  RH  037%=      5-min Rain = 0
KTH1 010249Z 17004KT 22/07 A3006 RMK A01 T02190066  RH  037%=      5-min Rain = 0
KTH1 010250Z 17004KT 22/06 A3006 RMK A01 T02190064  RH  037%=      5-min Rain = 0
KTH1 010251Z 18004KT 22/07 A3006 RMK A01 T02190065  RH  037%=      5-min Rain = 0
KTH1 010252Z 17004KT 22/06 A3006 RMK A01 T02180064  RH  037%=      5-min Rain = 0
KTH1 010253Z 17004KT 22/06 A3006 RMK A01 T02180064  RH  037%=      5-min Rain = 0
KTH1 010254Z 17004KT 22/06 A3006 RMK A01 T02180063  RH  037%=      5-min Rain = 0
KTH1 010255Z 17004KT 22/06 A3006 RMK A01 T02180064  RH  037%=      5-min Rain = 0
KTH1 010256Z 18005KT 22/06 A3006 RMK A01 T02180063  RH  037%=      5-min Rain = 0
KTH1 010257Z 18004KT 22/06 A3006 RMK A01 T02180063  RH  037%=      5-min Rain = 0
KTH1 010258Z 18004KT 22/06 A3006 RMK A01 T02180064  RH  037%=      5-min Rain = 0
KTH1 010259Z 18004KT 22/06 A3006 RMK A01 T02180064  RH  037%=      5-min Rain = 0
KTH1 010300Z 18004KT 22/06 A3006 RMK A01 T02180062  RH  036%=      5-min Rain = 0
KTH1 010301Z 18004KT 22/06 A3006 RMK A01 T02190064  RH  037%=      5-min Rain = 0
KTH1 010302Z 18005KT 22/06 A3006 RMK A01 T02180064  RH  037%=      5-min Rain = 0
KTH1 010303Z 19005KT 22/06 A3006 RMK A01 T02180063  RH  036%=      5-min Rain = 0
KTH1 010304Z 18005KT 22/06 A3006 RMK A01 T02180063  RH  037%=      5-min Rain = 0
KTH1 010305Z 19005KT 22/06 A3006 RMK A01 T02180063  RH  037%=      5-min Rain = 0
KTH1 010306Z 19005KT 22/06 A3006 RMK A01 T02180063  RH  037%=      5-min Rain = 0
KTH1 010307Z 19005KT 22/06 A3006 RMK A01 T02180063  RH  037%=      5-min Rain = 0
KTH1 010308Z 19005KT 22/06 A3006 RMK A01 T02180063  RH  037%=      5-min Rain = 0
KTH1 010309Z 19006KT 22/06 A3006 RMK A01 T02180063  RH  037%=      5-min Rain = 0
KTH1 010310Z 19005KT 22/06 A3006 RMK A01 T02180063  RH  037%=      5-min Rain = 0
KTH1 010311Z 18006KT 22/06 A3006 RMK A01 T02180062  RH  036%=      5-min Rain = 0
KTH1 010312Z 19006KT 22/06 A3006 RMK A01 T02190061  RH  036%=      5-min Rain = 0
KTH1 010313Z 18005KT 22/06 A3006 RMK A01 T02200063  RH  036%=      5-min Rain = 0
KTH1 010314Z 18006KT 22/06 A3006 RMK A01 T02200062  RH  036%=      5-min Rain = 0
KTH1 010315Z 19006KT 22/06 A3007 RMK A01 T02200061  RH  036%=      5-min Rain = 0
KTH1 010316Z 18005KT 22/06 A3007 RMK A01 T02200061  RH  036%=      5-min Rain = 0
KTH1 010317Z 18005KT 22/06 A3007 RMK A01 T02200061  RH  035%=      5-min Rain = 0
KTH1 010318Z 18004KT 22/06 A3007 RMK A01 T02210060  RH  035%=      5-min Rain = 0
KTH1 010319Z 18005KT 22/06 A3007 RMK A01 T02210059  RH  035%=      5-min Rain = 0
KTH1 010320Z 19005KT 22/06 A3007 RMK A01 T02220060  RH  035%=      5-min Rain = 0
KTH1 010321Z 19005KT 22/06 A3007 RMK A01 T02220059  RH  035%=      5-min Rain = 0
KTH1 010322Z 19005KT 22/06 A3007 RMK A01 T02220059  RH  035%=      5-min Rain = 0
KTH1 010323Z 18005KT 22/06 A3007 RMK A01 T02220059  RH  035%=      5-min Rain = 0
KTH1 010324Z 19005KT 22/06 A3007 RMK A01 T02220057  RH  034%=      5-min Rain = 0
KTH1 010325Z 19006KT 22/06 A3007 RMK A01 T02230057  RH  034%=      5-min Rain = 0
KTH1 010326Z 19005KT 22/06 A3007 RMK A01 T02230056  RH  034%=      5-min Rain = 0
KTH1 010327Z 19005KT 22/06 A3007 RMK A01 T02240055  RH  033%=      5-min Rain = 0
KTH1 010328Z 19006KT 23/06 A3007 RMK A01 T02250055  RH  033%=      5-min Rain = 0
KTH1 010329Z 19005KT 23/06 A3007 RMK A01 T02250055  RH  033%=      5-min Rain = 0
KTH1 010330Z 19006KT 23/05 A3007 RMK A01 T02260054  RH  033%=      5-min Rain = 0
KTH1 010331Z 19005KT 23/06 A3007 RMK A01 T02260055  RH  033%=      5-min Rain = 0
KTH1 010332Z 19005KT 23/06 A3007 RMK A01 T02260055  RH  033%=      5-min Rain = 0
KTH1 010333Z 19006KT 23/06 A3007 RMK A01 T02250055  RH  033%=      5-min Rain = 0
KTH1 010334Z 20005KT 23/06 A3007 RMK A01 T02250055  RH  033%=      5-min Rain = 0
KTH1 010335Z 19006KT 23/06 A3007 RMK A01 T02250056  RH  033%=      5-min Rain = 0
KTH1 010336Z 19005KT 22/06 A3007 RMK A01 T02240057  RH  034%=      5-min Rain = 0
KTH1 010337Z 19006KT 22/06 A3007 RMK A01 T02240057  RH  034%=      5-min Rain = 0
KTH1 010338Z 19005KT 22/06 A3007 RMK A01 T02240056  RH  034%=      5-min Rain = 0
KTH1 010339Z 19006KT 22/06 A3007 RMK A01 T02240057  RH  034%=      5-min Rain = 0
KTH1 010340Z 19006KT 22/06 A3007 RMK A01 T02230058  RH  034%=      5-min Rain = 0
KTH1 010341Z 19006KT 22/06 A3007 RMK A01 T02230056  RH  034%=      5-min Rain = 0
KTH1 010342Z 19005KT 22/06 A3008 RMK A01 T02240056  RH  034%=      5-min Rain = 0
KTH1 010343Z 19006KT 23/06 A3008 RMK A01 T02250057  RH  034%=      5-min Rain = 0
KTH1 010344Z 19005KT 22/06 A3008 RMK A01 T02240056  RH  033%=      5-min Rain = 0
KTH1 010345Z 19005KT 23/06 A3008 RMK A01 T02250057  RH  034%=      5-min Rain = 0
KTH1 010346Z 18005KT 22/06 A3008 RMK A01 T02240057  RH  034%=      5-min Rain = 0
KTH1 010347Z 19005KT 22/06 A3008 RMK A01 T02240057  RH  034%=      5-min Rain = 0
KTH1 010348Z 18005KT 22/06 A3008 RMK A01 T02240056  RH  034%=      5-min Rain = 0
KTH1 010349Z 19005KT 22/06 A3008 RMK A01 T02240057  RH  034%=      5-min Rain = 0
KTH1 010350Z 19006KT 22/06 A3008 RMK A01 T02240057  RH  034%=      5-min Rain = 0
KTH1 010351Z 19005KT 22/06 A3008 RMK A01 T02240057  RH  034%=      5-min Rain = 0
KTH1 010352Z 19005KT 22/06 A3008 RMK A01 T02230058  RH  034%=      5-min Rain = 0
KTH1 010353Z 19005KT 22/06 A3008 RMK A01 T02230058  RH  034%=      5-min Rain = 0
KTH1 010354Z 20006KT 22/06 A3008 RMK A01 T02230058  RH  034%=      5-min Rain = 0
KTH1 010355Z 19005KT 22/06 A3008 RMK A01 T02230057  RH  034%=      5-min Rain = 0
KTH1 010356Z 19005KT 22/06 A3008 RMK A01 T02220058  RH  034%=      5-min Rain = 0
KTH1 010357Z 19006KT 22/06 A3008 RMK A01 T02220058  RH  034%=      5-min Rain = 0
KTH1 010358Z 19006KT 22/06 A3008 RMK A01 T02220059  RH  035%=      5-min Rain = 0
KTH1 010359Z 19006KT 22/06 A3008 RMK A01 T02220057  RH  034%=      5-min Rain = 0
KTH1 010400Z 19006KT 22/06 A3008 RMK A01 T02220058  RH  034%=      5-min Rain = 0
KTH1 010401Z 19006KT 22/06 A3008 RMK A01 T02220059  RH  035%=      5-min Rain = 0
KTH1 010402Z 19005KT 22/06 A3008 RMK A01 T02220059  RH  035%=      5-min Rain = 0
KTH1 010403Z 19006KT 22/06 A3008 RMK A01 T02210058  RH  035%=      5-min Rain = 0
KTH1 010404Z 18005KT 22/06 A3008 RMK A01 T02210059  RH  035%=      5-min Rain = 0
KTH1 010405Z 18004KT 22/06 A3008 RMK A01 T02200058  RH  035%=      5-min Rain = 0
KTH1 010406Z 19005KT 22/06 A3008 RMK A01 T02200057  RH  035%=      5-min Rain = 0
KTH1 010407Z 19005KT 22/06 A3008 RMK A01 T02200058  RH  035%=      5-min Rain = 0
KTH1 010408Z 19006KT 22/06 A3008 RMK A01 T02200058  RH  035%=      5-min Rain = 0
KTH1 010409Z 19005KT 22/06 A3008 RMK A01 T02200058  RH  035%=      5-min Rain = 0
KTH1 010410Z 19006KT 22/06 A3008 RMK A01 T02200058  RH  035%=      5-min Rain = 0
KTH1 010411Z 19006KT 22/06 A3008 RMK A01 T02200058  RH  035%=      5-min Rain = 0
KTH1 010412Z 19006KT 22/06 A3008 RMK A01 T02200057  RH  035%=      5-min Rain = 0
KTH1 010413Z 19006KT 22/06 A3008 RMK A01 T02200057  RH  035%=      5-min Rain = 0
KTH1 010414Z 19006KT 22/06 A3008 RMK A01 T02190056  RH  035%=      5-min Rain = 0
KTH1 010415Z 19006KT 22/06 A3008 RMK A01 T02200056  RH  034%=      5-min Rain = 0
KTH1 010416Z 19005KT 22/06 A3008 RMK A01 T02200057  RH  035%=      5-min Rain = 0
KTH1 010417Z 19007KT 22/06 A3008 RMK A01 T02200056  RH  034%=      5-min Rain = 0
KTH1 010418Z 19007KT 22/06 A3008 RMK A01 T02210055  RH  034%=      5-min Rain = 0
KTH1 010419Z 19006KT 22/06 A3008 RMK A01 T02210055  RH  034%=      5-min Rain = 0
KTH1 010420Z 19008KT 22/06 A3008 RMK A01 T02210055  RH  034%=      5-min Rain = 0
KTH1 010421Z 20007KT 22/05 A3008 RMK A01 T02220053  RH  033%=      5-min Rain = 0
KTH1 010422Z 19007KT 22/05 A3008 RMK A01 T02230054  RH  033%=      5-min Rain = 0
KTH1 010423Z 19008KT 22/05 A3008 RMK A01 T02240053  RH  033%=      5-min Rain = 0
KTH1 010424Z 19008KT 23/05 A3008 RMK A01 T02250051  RH  032%=      5-min Rain = 0
KTH1 010425Z 19006KT 23/05 A3008 RMK A01 T02260053  RH  032%=      5-min Rain = 0
KTH1 010426Z 19008KT 23/05 A3008 RMK A01 T02260053  RH  032%=      5-min Rain = 0
KTH1 010427Z 19006KT 23/05 A3008 RMK A01 T02260051  RH  032%=      5-min Rain = 0
KTH1 010428Z 19006KT 23/05 A3008 RMK A01 T02270051  RH  032%=      5-min Rain = 0
KTH1 010429Z 19007KT 23/05 A3008 RMK A01 T02270052  RH  032%=      5-min Rain = 0
KTH1 010430Z 20006KT 23/05 A3008 RMK A01 T02260053  RH  032%=      5-min Rain = 0
KTH1 010431Z 19007KT 23/05 A3008 RMK A01 T02250052  RH  032%=      5-min Rain = 0
KTH1 010432Z 19007KT 23/05 A3008 RMK A01 T02250051  RH  032%=      5-min Rain = 0
KTH1 010433Z 20007KT 23/05 A3008 RMK A01 T02250051  RH  032%=      5-min Rain = 0
KTH1 010434Z 19007KT 23/05 A3008 RMK A01 T02250051  RH  032%=      5-min Rain = 0
KTH1 010435Z 20008KT 23/05 A3008 RMK A01 T02250051  RH  032%=      5-min Rain = 0
KTH1 010436Z 20007KT 23/05 A3008 RMK A01 T02250051  RH  032%=      5-min Rain = 0
KTH1 010437Z 19007KT 23/05 A3008 RMK A01 T02250051  RH  032%=      5-min Rain = 0
KTH1 010438Z 20006KT 23/05 A3008 RMK A01 T02250051  RH  032%=      5-min Rain = 0
KTH1 010439Z 20006KT 22/05 A3008 RMK A01 T02240051  RH  032%=      5-min Rain = 0
KTH1 010440Z 20007KT 22/05 A3008 RMK A01 T02240050  RH  032%=      5-min Rain = 0
KTH1 010441Z 19008KT 23/05 A3008 RMK A01 T02250051  RH  032%=      5-min Rain = 0
KTH1 010442Z 20005KT 23/05 A3008 RMK A01 T02250050  RH  032%=      5-min Rain = 0
KTH1 010443Z 20006KT 23/05 A3008 RMK A01 T02250051  RH  032%=      5-min Rain = 0
KTH1 010444Z 20006KT 22/05 A3008 RMK A01 T02240051  RH  033%=      5-min Rain = 0
KTH1 010445Z 19006KT 22/05 A3008 RMK A01 T02230052  RH  033%=      5-min Rain = 0
KTH1 010446Z 19007KT 22/05 A3008 RMK A01 T02220051  RH  033%=      5-min Rain = 0
KTH1 010447Z 19006KT 22/05 A3008 RMK A01 T02220050  RH  033%=      5-min Rain = 0
KTH1 010448Z 20005KT 22/05 A3008 RMK A01 T02220051  RH  033%=      5-min Rain = 0
KTH1 010449Z 20005KT 22/05 A3008 RMK A01 T02220051  RH  033%=      5-min Rain = 0
KTH1 010450Z 20006KT 22/05 A3008 RMK A01 T02210051  RH  033%=      5-min Rain = 0
KTH1 010451Z 20005KT 22/05 A3009 RMK A01 T02200051  RH  033%=      5-min Rain = 0
KTH1 010452Z 19005KT 22/05 A3009 RMK A01 T02200052  RH  033%=      5-min Rain = 0
KTH1 010453Z 20006KT 22/05 A3009 RMK A01 T02180051  RH  034%=      5-min Rain = 0
KTH1 010454Z 20006KT 22/05 A3009 RMK A01 T02180050  RH  033%=      5-min Rain = 0
KTH1 010455Z 20007KT 22/05 A3009 RMK A01 T02180050  RH  033%=      5-min Rain = 0
KTH1 010456Z 20005KT 22/05 A3009 RMK A01 T02190049  RH  033%=      5-min Rain = 0
KTH1 010457Z 20006KT 22/05 A3009 RMK A01 T02190051  RH  033%=      5-min Rain = 0
KTH1 010458Z 21006KT 22/05 A3009 RMK A01 T02190050  RH  033%=      5-min Rain = 0
KTH1 010459Z 20005KT 22/05 A3009 RMK A01 T02180051  RH  033%=      5-min Rain = 0

Page generated in 0.1137 seconds.